Time,TemperatureF,DewpointF,PressureIn,WindDirection,WindDirectionDegrees,WindSpeedMPH,WindSpeedGustMPH,Humidity,HourlyPrecipIn,Conditions,Clouds,dailyrainin,SoftwareType,DateUTC
2013-02-10 00:00:00,36.0,26.4,30.13,SE,127,5.2,6.6,68,0.00,,BKN230,0.00,VWS V14.01,2013-02-10 05:00:00,
2013-02-10 00:01:00,36.1,26.6,30.13,ESE,119,5.2,6.6,68,0.00,,BKN230,0.00,VWS V14.01,2013-02-10 05:01:00,
2013-02-10 00:02:00,36.1,26.6,30.13,ESE,110,4.4,6.6,68,0.00,,BKN230,0.00,VWS V14.01,2013-02-10 05:02:00,
2013-02-10 00:03:00,36.1,26.6,30.13,ESE,110,4.4,6.6,68,0.00,,OVC085,0.00,VWS V14.01,2013-02-10 05:03:00,
2013-02-10 00:04:00,36.1,26.6,30.13,ESE,120,5.9,7.5,68,0.00,,OVC085,0.00,VWS V14.01,2013-02-10 05:04:00,
2013-02-10 00:05:00,36.1,26.6,30.13,East,93,5.2,10.3,68,0.00,,OVC085,0.00,VWS V14.01,2013-02-10 05:05:00,
2013-02-10 00:06:00,36.1,26.6,30.13,East,93,0.0,6.6,68,0.00,,OVC085,0.00,VWS V14.01,2013-02-10 05:06:00,
2013-02-10 00:07:00,36.1,26.6,30.13,East,101,5.9,7.5,68,0.00,,BKN230,0.00,VWS V14.01,2013-02-10 05:07:00,
2013-02-10 00:08:00,36.1,26.6,30.13,East,101,0.0,7.5,68,0.00,,OVC085,0.00,VWS V14.01,2013-02-10 05:08:00,
2013-02-10 00:09:00,36.1,26.6,30.13,SE,127,5.2,6.6,68,0.00,,OVC085,0.00,VWS V14.01,2013-02-10 05:09:00,
2013-02-10 00:10:00,36.3,26.8,30.13,SE,127,0.0,6.6,68,0.00,,OVC085,0.00,VWS V14.01,2013-02-10 05:10:00,
2013-02-10 00:11:00,36.3,26.8,30.13,SE,127,5.2,6.6,68,0.00,,OVC085,0.00,VWS V14.01,2013-02-10 05:11:00,
2013-02-10 00:12:00,36.3,26.8,30.13,SE,127,4.4,5.6,68,0.00,,BKN230,0.00,VWS V14.01,2013-02-10 05:12:00,
2013-02-10 00:13:00,36.3,26.8,30.13,ESE,111,4.4,7.5,68,0.00,,OVC085,0.00,VWS V14.01,2013-02-10 05:13:00,
2013-02-10 00:14:00,36.3,26.8,30.13,SE,135,5.2,8.5,68,0.00,,OVC085,0.00,VWS V14.01,2013-02-10 05:14:00,
2013-02-10 00:15:00,36.3,26.8,30.13,SE,126,0.0,6.6,68,0.00,,OVC085,0.00,VWS V14.01,2013-02-10 05:15:00,
2013-02-10 00:16:00,36.3,26.8,30.13,ESE,114,0.0,0.0,68,0.00,,OVC085,0.00,VWS V14.01,2013-02-10 05:16:00,
2013-02-10 00:17:00,36.3,26.8,30.13,ESE,113,5.2,8.5,68,0.00,,BKN230,0.00,VWS V14.01,2013-02-10 05:17:00,
2013-02-10 00:18:00,36.5,27.0,30.13,ESE,113,0.0,8.5,68,0.00,,OVC085,0.00,VWS V14.01,2013-02-10 05:18:00,
2013-02-10 00:19:00,36.5,27.0,30.13,ESE,113,0.0,4.7,68,0.00,,OVC085,0.00,VWS V14.01,2013-02-10 05:19:00,
2013-02-10 00:20:00,36.5,27.0,30.13,ESE,113,0.0,0.0,68,0.00,,OVC085,0.00,VWS V14.01,2013-02-10 05:20:00,
2013-02-10 00:21:00,36.5,27.0,30.13,ESE,115,5.9,10.3,68,0.00,,OVC085,0.00,VWS V14.01,2013-02-10 05:21:00,
2013-02-10 00:22:00,36.5,27.0,30.13,ESE,110,5.2,7.5,68,0.00,,BKN230,0.00,VWS V14.01,2013-02-10 05:22:00,
2013-02-10 00:23:00,36.5,27.0,30.13,ESE,111,3.7,7.5,68,0.00,,OVC085,0.00,VWS V14.01,2013-02-10 05:23:00,
2013-02-10 00:24:00,36.7,27.1,30.13,ESE,110,5.2,6.6,68,0.00,,OVC085,0.00,VWS V14.01,2013-02-10 05:24:00,
2013-02-10 00:25:00,36.7,27.1,30.13,SE,124,5.2,6.6,68,0.00,,OVC085,0.00,VWS V14.01,2013-02-10 05:25:00,
2013-02-10 00:26:00,36.7,27.1,30.13,SE,126,5.9,7.5,68,0.00,,OVC085,0.00,VWS V14.01,2013-02-10 05:26:00,
2013-02-10 00:27:00,36.7,27.1,30.13,SE,130,0.0,0.0,68,0.00,,BKN230,0.00,VWS V14.01,2013-02-10 05:27:00,
2013-02-10 00:28:00,36.7,27.1,30.13,SE,130,5.2,6.6,68,0.00,,OVC085,0.00,VWS V14.01,2013-02-10 05:28:00,
2013-02-10 00:29:00,36.7,27.1,30.13,SE,129,0.0,6.6,68,0.00,,OVC085,0.00,VWS V14.01,2013-02-10 05:29:00,
2013-02-10 00:30:00,36.7,27.1,30.13,SE,129,0.0,5.6,68,0.00,,OVC085,0.00,VWS V14.01,2013-02-10 05:30:00,
2013-02-10 00:31:00,36.7,27.1,30.13,East,91,5.2,6.6,68,0.00,,OVC085,0.00,VWS V14.01,2013-02-10 05:31:00,
2013-02-10 00:32:00,36.7,27.1,30.13,SE,129,5.2,8.5,68,0.00,,BKN230,0.00,VWS V14.01,2013-02-10 05:32:00,
2013-02-10 00:33:00,36.7,27.1,30.13,SE,129,5.2,8.5,68,0.00,,OVC085,0.00,VWS V14.01,2013-02-10 05:33:00,
2013-02-10 00:34:00,36.9,27.3,30.13,ESE,109,0.0,6.6,68,0.00,,OVC085,0.00,VWS V14.01,2013-02-10 05:34:00,
2013-02-10 00:35:00,36.9,27.3,30.13,ESE,121,5.9,7.5,68,0.00,,OVC085,0.00,VWS V14.01,2013-02-10 05:35:00,
2013-02-10 00:36:00,36.9,27.3,30.13,ESE,122,0.0,7.5,68,0.00,,OVC085,0.00,VWS V14.01,2013-02-10 05:36:00,
2013-02-10 00:37:00,36.9,27.3,30.13,ESE,121,0.0,0.0,68,0.00,,BKN230,0.00,VWS V14.01,2013-02-10 05:37:00,
2013-02-10 00:38:00,36.9,27.3,30.13,ESE,121,0.0,0.0,68,0.00,,OVC085,0.00,VWS V14.01,2013-02-10 05:38:00,
2013-02-10 00:39:00,36.9,27.3,30.13,ESE,121,0.0,0.0,68,0.00,,OVC085,0.00,VWS V14.01,2013-02-10 05:39:00,
2013-02-10 00:40:00,36.9,27.3,30.13,ESE,121,4.4,7.5,68,0.00,,OVC085,0.00,VWS V14.01,2013-02-10 05:40:00,
2013-02-10 00:41:00,36.9,27.3,30.13,ESE,121,0.0,5.6,68,0.00,,OVC085,0.00,VWS V14.01,2013-02-10 05:41:00,
2013-02-10 00:42:00,36.7,27.1,30.13,ESE,121,0.0,0.0,68,0.00,,OVC230,0.00,VWS V14.01,2013-02-10 05:42:00,
2013-02-10 00:43:00,36.7,27.1,30.13,ESE,121,0.0,0.0,68,0.00,,OVC085,0.00,VWS V14.01,2013-02-10 05:43:00,
2013-02-10 00:44:00,36.7,27.1,30.13,ESE,121,0.0,0.0,68,0.00,,OVC085,0.00,VWS V14.01,2013-02-10 05:44:00,
2013-02-10 00:45:00,36.9,27.3,30.13,ESE,121,0.0,0.0,68,0.00,,OVC085,0.00,VWS V14.01,2013-02-10 05:45:00,
2013-02-10 00:46:00,36.7,27.1,30.13,ESE,121,0.0,0.0,68,0.00,,OVC085,0.00,VWS V14.01,2013-02-10 05:46:00,
2013-02-10 00:47:00,36.7,27.1,30.13,ESE,121,0.0,0.0,68,0.00,,OVC230,0.00,VWS V14.01,2013-02-10 05:47:00,
2013-02-10 00:48:00,36.7,27.1,30.13,ESE,121,0.0,0.0,68,0.00,,OVC085,0.00,VWS V14.01,2013-02-10 05:48:00,
2013-02-10 00:49:00,36.7,27.1,30.13,ESE,121,0.0,5.6,68,0.00,,OVC085,0.00,VWS V14.01,2013-02-10 05:49:00,
2013-02-10 00:50:00,36.7,27.1,30.13,ESE,121,4.4,5.6,68,0.00,,OVC085,0.00,VWS V14.01,2013-02-10 05:50:00,
2013-02-10 00:51:00,36.7,27.1,30.13,ESE,121,3.7,5.6,68,0.00,,OVC085,0.00,VWS V14.01,2013-02-10 05:51:00,
2013-02-10 00:52:00,36.7,27.1,30.13,ESE,121,0.0,5.6,68,0.00,,OVC230,0.00,VWS V14.01,2013-02-10 05:52:00,
2013-02-10 00:53:00,36.7,27.1,30.13,ESE,121,0.0,5.6,68,0.00,,OVC085,0.00,VWS V14.01,2013-02-10 05:53:00,
2013-02-10 00:54:00,36.7,27.1,30.13,ESE,121,0.0,0.0,68,0.00,,OVC085,0.00,VWS V14.01,2013-02-10 05:54:00,
2013-02-10 00:55:00,36.7,27.1,30.13,ESE,121,0.0,0.0,68,0.00,,OVC085,0.00,VWS V14.01,2013-02-10 05:55:00,
2013-02-10 00:56:00,36.7,27.1,30.13,ESE,121,0.0,5.6,68,0.00,,OVC085,0.00,VWS V14.01,2013-02-10 05:56:00,
2013-02-10 00:57:00,36.7,27.1,30.13,ESE,121,0.0,0.0,68,0.00,,OVC230,0.00,VWS V14.01,2013-02-10 05:57:00,
2013-02-10 00:58:00,36.7,27.1,30.13,ESE,121,0.0,0.0,68,0.00,,OVC085,0.00,VWS V14.01,2013-02-10 05:58:00,
2013-02-10 00:59:00,36.7,27.1,30.13,ESE,121,0.0,0.0,68,0.00,,OVC085,0.00,VWS V14.01,2013-02-10 05:59:00,
2013-02-10 01:00:00,36.7,27.1,30.13,ESE,121,0.0,0.0,68,0.00,,OVC085,0.00,VWS V14.01,2013-02-10 06:00:00,
2013-02-10 01:01:00,36.7,27.1,30.13,ESE,121,0.0,0.0,68,0.00,,OVC085,0.00,VWS V14.01,2013-02-10 06:01:00,
2013-02-10 01:02:00,36.7,27.1,30.13,ESE,121,0.0,0.0,68,0.00,,OVC230,0.00,VWS V14.01,2013-02-10 06:02:00,
2013-02-10 01:03:00,36.7,27.1,30.13,ESE,121,0.0,0.0,68,0.00,,OVC085,0.00,VWS V14.01,2013-02-10 06:03:00,
2013-02-10 01:04:00,36.7,27.1,30.13,ESE,121,0.0,0.0,68,0.00,,OVC085,0.00,VWS V14.01,2013-02-10 06:04:00,
2013-02-10 01:05:00,36.7,27.1,30.13,ESE,121,0.0,0.0,68,0.00,,OVC085,0.00,VWS V14.01,2013-02-10 06:05:00,
2013-02-10 01:06:00,36.7,27.1,30.13,ESE,121,0.0,0.0,68,0.00,,OVC085,0.00,VWS V14.01,2013-02-10 06:06:00,
2013-02-10 01:07:00,36.7,27.1,30.13,ESE,121,0.0,0.0,68,0.00,,OVC230,0.00,VWS V14.01,2013-02-10 06:07:00,
2013-02-10 01:08:00,36.7,27.1,30.13,ESE,121,0.0,0.0,68,0.00,,OVC085,0.00,VWS V14.01,2013-02-10 06:08:00,
2013-02-10 01:09:00,36.7,27.1,30.13,ESE,121,0.0,0.0,68,0.00,,OVC085,0.00,VWS V14.01,2013-02-10 06:09:00,
2013-02-10 01:10:00,36.7,27.1,30.13,ESE,121,0.0,0.0,68,0.00,,OVC085,0.00,VWS V14.01,2013-02-10 06:10:00,
2013-02-10 01:11:00,36.7,27.1,30.13,ESE,121,0.0,0.0,68,0.00,,OVC085,0.00,VWS V14.01,2013-02-10 06:11:00,
2013-02-10 01:12:00,36.7,27.1,30.13,ESE,121,0.0,0.0,68,0.00,,OVC085,0.00,VWS V14.01,2013-02-10 06:12:00,
2013-02-10 01:13:00,36.7,27.1,30.13,ESE,121,0.0,0.0,68,0.00,,OVC230,0.00,VWS V14.01,2013-02-10 06:13:00,
2013-02-10 01:14:00,36.7,27.1,30.13,ESE,121,0.0,0.0,68,0.00,,OVC085,0.00,VWS V14.01,2013-02-10 06:14:00,
2013-02-10 01:15:00,36.7,27.1,30.13,ESE,121,0.0,0.0,68,0.00,,OVC085,0.00,VWS V14.01,2013-02-10 06:15:00,
2013-02-10 01:16:00,36.7,27.1,30.13,ESE,121,0.0,0.0,68,0.00,,OVC085,0.00,VWS V14.01,2013-02-10 06:16:00,
2013-02-10 01:17:00,36.7,27.1,30.13,ESE,121,0.0,0.0,68,0.00,,OVC085,0.00,VWS V14.01,2013-02-10 06:17:00,
2013-02-10 01:18:00,36.7,27.1,30.13,ESE,121,0.0,0.0,68,0.00,,OVC230,0.00,VWS V14.01,2013-02-10 06:18:00,
2013-02-10 01:19:00,36.7,27.1,30.13,ESE,121,0.0,0.0,68,0.00,,OVC085,0.00,VWS V14.01,2013-02-10 06:19:00,
2013-02-10 01:20:00,36.5,27.0,30.13,ESE,121,0.0,0.0,68,0.00,,OVC085,0.00,VWS V14.01,2013-02-10 06:20:00,
2013-02-10 01:21:00,36.5,27.0,30.13,ESE,121,0.0,0.0,68,0.00,,OVC085,0.00,VWS V14.01,2013-02-10 06:21:00,
2013-02-10 01:22:00,36.5,27.0,30.13,ESE,121,0.0,0.0,68,0.00,,OVC085,0.00,VWS V14.01,2013-02-10 06:22:00,
2013-02-10 01:23:00,36.3,26.8,30.13,ESE,121,0.0,0.0,68,0.00,,OVC230,0.00,VWS V14.01,2013-02-10 06:23:00,
2013-02-10 01:24:00,36.3,26.8,30.13,ESE,121,0.0,0.0,68,0.00,,OVC085,0.00,VWS V14.01,2013-02-10 06:24:00,
2013-02-10 01:25:00,36.3,26.8,30.13,ESE,121,0.0,0.0,68,0.00,,OVC085,0.00,VWS V14.01,2013-02-10 06:25:00,
2013-02-10 01:26:00,36.3,26.8,30.10,ESE,121,0.0,0.0,68,0.00,,OVC085,0.00,VWS V14.01,2013-02-10 06:26:00,
2013-02-10 01:27:00,36.1,27.2,30.10,ESE,121,0.0,0.0,70,0.00,,OVC085,0.00,VWS V14.01,2013-02-10 06:27:00,
2013-02-10 01:28:00,36.1,27.2,30.10,ESE,121,0.0,0.0,70,0.00,,OVC230,0.00,VWS V14.01,2013-02-10 06:28:00,
2013-02-10 01:29:00,36.1,27.2,30.10,ESE,121,0.0,0.0,70,0.00,,OVC085,0.00,VWS V14.01,2013-02-10 06:29:00,
2013-02-10 01:30:00,36.1,27.2,30.10,ESE,121,0.0,0.0,70,0.00,,OVC085,0.00,VWS V14.01,2013-02-10 06:30:00,
2013-02-10 01:31:00,36.1,27.2,30.10,ESE,121,0.0,0.0,70,0.00,,OVC085,0.00,VWS V14.01,2013-02-10 06:31:00,
2013-02-10 01:32:00,36.0,27.0,30.10,ESE,121,0.0,0.0,70,0.00,,OVC085,0.00,VWS V14.01,2013-02-10 06:32:00,
2013-02-10 01:33:00,36.0,27.0,30.10,ESE,121,0.0,0.0,70,0.00,,OVC230,0.00,VWS V14.01,2013-02-10 06:33:00,
2013-02-10 01:34:00,36.0,27.0,30.10,ESE,121,0.0,0.0,70,0.00,,OVC085,0.00,VWS V14.01,2013-02-10 06:34:00,
2013-02-10 01:35:00,36.0,27.0,30.10,ESE,121,0.0,0.0,70,0.00,,OVC085,0.00,VWS V14.01,2013-02-10 06:35:00,
2013-02-10 01:36:00,36.0,27.0,30.10,ESE,121,0.0,0.0,70,0.00,,OVC085,0.00,VWS V14.01,2013-02-10 06:36:00,
2013-02-10 01:37:00,36.0,27.0,30.10,ESE,121,0.0,0.0,70,0.00,,OVC085,0.00,VWS V14.01,2013-02-10 06:37:00,
2013-02-10 01:38:00,35.8,26.9,30.10,ESE,121,0.0,0.0,70,0.00,,OVC230,0.00,VWS V14.01,2013-02-10 06:38:00,
2013-02-10 01:39:00,35.8,26.9,30.10,ESE,121,0.0,0.0,70,0.00,,OVC085,0.00,VWS V14.01,2013-02-10 06:39:00,
2013-02-10 01:40:00,35.8,26.9,30.10,ESE,121,0.0,0.0,70,0.00,,OVC085,0.00,VWS V14.01,2013-02-10 06:40:00,
2013-02-10 01:41:00,35.8,26.9,30.13,ESE,121,0.0,0.0,70,0.00,,OVC085,0.00,VWS V14.01,2013-02-10 06:41:00,
2013-02-10 01:42:00,35.8,26.9,30.13,ESE,121,0.0,0.0,70,0.00,,OVC085,0.00,VWS V14.01,2013-02-10 06:42:00,
2013-02-10 01:43:00,35.8,27.5,30.13,ESE,122,0.0,0.0,71,0.00,,BKN210,0.00,VWS V14.01,2013-02-10 06:43:00,
2013-02-10 01:44:00,35.8,27.5,30.13,ESE,121,0.0,0.0,71,0.00,,OVC085,0.00,VWS V14.01,2013-02-10 06:44:00,
2013-02-10 01:45:00,35.8,27.5,30.13,ESE,121,0.0,0.0,71,0.00,,OVC085,0.00,VWS V14.01,2013-02-10 06:45:00,
2013-02-10 01:46:00,35.8,28.0,30.13,ESE,121,0.0,0.0,73,0.00,,OVC085,0.00,VWS V14.01,2013-02-10 06:46:00,
2013-02-10 01:47:00,35.8,28.0,30.13,ESE,121,0.0,0.0,73,0.00,,OVC085,0.00,VWS V14.01,2013-02-10 06:47:00,
2013-02-10 01:48:00,35.6,27.9,30.13,ESE,121,0.0,0.0,73,0.00,,BKN210,0.00,VWS V14.01,2013-02-10 06:48:00,
2013-02-10 01:49:00,35.6,27.9,30.13,ESE,121,0.0,0.0,73,0.00,,OVC085,0.00,VWS V14.01,2013-02-10 06:49:00,
2013-02-10 01:50:00,35.6,27.9,30.13,ESE,121,0.0,0.0,73,0.00,,OVC085,0.00,VWS V14.01,2013-02-10 06:50:00,
2013-02-10 01:51:00,35.6,27.9,30.13,ESE,121,0.0,0.0,73,0.00,,OVC085,0.00,VWS V14.01,2013-02-10 06:51:00,
2013-02-10 01:52:00,35.6,27.9,30.13,ESE,121,0.0,0.0,73,0.00,,OVC085,0.00,VWS V14.01,2013-02-10 06:52:00,
2013-02-10 01:53:00,35.6,27.9,30.13,ESE,121,0.0,0.0,73,0.00,,BKN210,0.00,VWS V14.01,2013-02-10 06:53:00,
2013-02-10 01:54:00,35.6,27.9,30.13,ESE,121,0.0,0.0,73,0.00,,OVC085,0.00,VWS V14.01,2013-02-10 06:54:00,
2013-02-10 01:55:00,35.6,27.9,30.13,ESE,121,0.0,0.0,73,0.00,,OVC085,0.00,VWS V14.01,2013-02-10 06:55:00,
2013-02-10 01:56:00,35.6,27.9,30.13,ESE,121,0.0,0.0,73,0.00,,OVC085,0.00,VWS V14.01,2013-02-10 06:56:00,
2013-02-10 01:57:00,35.6,27.9,30.13,ESE,121,0.0,0.0,73,0.00,,OVC085,0.00,VWS V14.01,2013-02-10 06:57:00,
2013-02-10 01:58:00,35.6,27.9,30.13,SE,146,5.9,7.5,73,0.00,,BKN210,0.00,VWS V14.01,2013-02-10 06:58:00,
2013-02-10 01:59:00,35.6,27.9,30.13,SE,146,5.2,7.5,73,0.00,,OVC085,0.00,VWS V14.01,2013-02-10 06:59:00,
2013-02-10 02:00:00,35.6,27.9,30.13,SE,146,0.0,6.6,73,0.00,,OVC085,0.00,VWS V14.01,2013-02-10 07:00:00,
2013-02-10 02:01:00,35.6,27.9,30.13,SSE,147,4.4,5.6,73,0.00,,OVC085,0.00,VWS V14.01,2013-02-10 07:01:00,
2013-02-10 02:02:00,35.6,27.9,30.13,SSE,158,0.0,7.5,73,0.00,,OVC085,0.00,VWS V14.01,2013-02-10 07:02:00,
2013-02-10 02:03:00,35.8,28.0,30.13,South,169,4.4,5.6,73,0.00,,BKN210,0.00,VWS V14.01,2013-02-10 07:03:00,
2013-02-10 02:04:00,35.8,28.0,30.13,South,169,4.4,5.6,73,0.00,,OVC085,0.00,VWS V14.01,2013-02-10 07:04:00,
2013-02-10 02:05:00,35.8,28.0,30.13,South,169,0.0,7.5,73,0.00,,OVC085,0.00,VWS V14.01,2013-02-10 07:05:00,
2013-02-10 02:06:00,36.0,28.2,30.13,South,169,0.0,5.6,73,0.00,,OVC085,0.00,VWS V14.01,2013-02-10 07:06:00,
2013-02-10 02:07:00,36.0,28.2,30.13,SSE,165,0.0,7.5,73,0.00,,OVC085,0.00,VWS V14.01,2013-02-10 07:07:00,
2013-02-10 02:08:00,36.1,28.4,30.13,SE,142,3.7,8.5,73,0.00,,BKN210,0.00,VWS V14.01,2013-02-10 07:08:00,
2013-02-10 02:09:00,36.1,28.4,30.13,SE,142,3.7,8.5,73,0.00,,OVC085,0.00,VWS V14.01,2013-02-10 07:09:00,
2013-02-10 02:10:00,36.1,28.4,30.13,SE,142,3.7,4.7,73,0.00,,OVC085,0.00,VWS V14.01,2013-02-10 07:10:00,
2013-02-10 02:11:00,36.3,28.5,30.13,SE,143,5.9,7.5,73,0.00,,OVC085,0.00,VWS V14.01,2013-02-10 07:11:00,
2013-02-10 02:12:00,36.3,28.5,30.13,SE,144,5.2,10.3,73,0.00,,OVC085,0.00,VWS V14.01,2013-02-10 07:12:00,
2013-02-10 02:13:00,36.5,28.7,30.13,SE,139,5.2,7.5,73,0.00,,BKN210,0.00,VWS V14.01,2013-02-10 07:13:00,
2013-02-10 02:14:00,36.5,28.7,30.13,SE,139,5.2,7.5,73,0.00,,OVC085,0.00,VWS V14.01,2013-02-10 07:14:00,
2013-02-10 02:15:00,36.7,28.9,30.13,ESE,118,5.9,11.3,73,0.00,,OVC085,0.00,VWS V14.01,2013-02-10 07:15:00,
2013-02-10 02:16:00,36.7,28.9,30.13,ESE,115,4.4,7.5,73,0.00,,OVC085,0.00,VWS V14.01,2013-02-10 07:16:00,
2013-02-10 02:17:00,36.9,28.5,30.13,ESE,116,5.2,8.5,71,0.00,,OVC085,0.00,VWS V14.01,2013-02-10 07:17:00,
2013-02-10 02:18:00,36.9,28.5,30.13,SSE,148,0.0,6.6,71,0.00,,BKN210,0.00,VWS V14.01,2013-02-10 07:18:00,
2013-02-10 02:19:00,36.9,28.5,30.13,SSE,148,0.0,6.6,71,0.00,,OVC085,0.00,VWS V14.01,2013-02-10 07:19:00,
2013-02-10 02:20:00,36.9,28.5,30.13,SSE,148,0.0,6.6,71,0.00,,OVC085,0.00,VWS V14.01,2013-02-10 07:20:00,
2013-02-10 02:21:00,37.0,28.7,30.13,SE,138,0.0,6.6,71,0.00,,OVC085,0.00,VWS V14.01,2013-02-10 07:21:00,
2013-02-10 02:22:00,37.0,28.7,30.13,SE,138,0.0,7.5,71,0.00,,OVC085,0.00,VWS V14.01,2013-02-10 07:22:00,
2013-02-10 02:23:00,37.0,28.7,30.13,SE,137,5.9,7.5,71,0.00,,BKN210,0.00,VWS V14.01,2013-02-10 07:23:00,
2013-02-10 02:24:00,37.0,28.7,30.13,SE,137,5.9,7.5,71,0.00,,OVC085,0.00,VWS V14.01,2013-02-10 07:24:00,
2013-02-10 02:25:00,37.0,28.7,30.13,SE,137,3.7,7.5,71,0.00,,-RA,0.00,VWS V14.01,2013-02-10 07:25:00,
2013-02-10 02:26:00,37.0,28.7,30.13,SE,137,4.4,8.5,71,0.00,,OVC085,0.00,VWS V14.01,2013-02-10 07:26:00,
2013-02-10 02:27:00,37.0,28.7,30.13,SE,137,0.0,5.6,71,0.00,,OVC085,0.00,VWS V14.01,2013-02-10 07:27:00,
2013-02-10 02:28:00,37.2,28.8,30.13,SE,138,8.9,11.3,71,0.00,,BKN210,0.00,VWS V14.01,2013-02-10 07:28:00,
2013-02-10 02:29:00,37.2,28.8,30.13,SE,138,8.9,11.3,71,0.00,,OVC085,0.00,VWS V14.01,2013-02-10 07:29:00,
2013-02-10 02:30:00,37.2,28.8,30.13,ESE,108,0.0,11.3,71,0.00,,OVC085,0.00,VWS V14.01,2013-02-10 07:30:00,
2013-02-10 02:31:00,37.2,28.8,30.13,ESE,119,3.7,8.5,71,0.00,,OVC085,0.00,VWS V14.01,2013-02-10 07:31:00,
2013-02-10 02:32:00,37.2,28.8,30.13,ESE,119,5.2,7.5,71,0.00,,OVC085,0.00,VWS V14.01,2013-02-10 07:32:00,
2013-02-10 02:33:00,37.2,28.8,30.13,SE,127,5.9,11.3,71,0.00,,BKN210,0.00,VWS V14.01,2013-02-10 07:33:00,
2013-02-10 02:34:00,37.2,28.8,30.13,SE,127,5.9,11.3,71,0.00,,OVC085,0.00,VWS V14.01,2013-02-10 07:34:00,
2013-02-10 02:35:00,37.2,28.8,30.13,SE,138,4.4,7.5,71,0.00,,OVC085,0.00,VWS V14.01,2013-02-10 07:35:00,
2013-02-10 02:36:00,37.2,28.8,30.13,SE,138,0.0,7.5,71,0.00,,OVC085,0.00,VWS V14.01,2013-02-10 07:36:00,
2013-02-10 02:37:00,37.2,28.8,30.13,SE,138,4.4,7.5,71,0.00,,OVC085,0.00,VWS V14.01,2013-02-10 07:37:00,
2013-02-10 02:38:00,37.2,28.8,30.13,SE,138,0.0,4.7,71,0.00,,BKN210,0.00,VWS V14.01,2013-02-10 07:38:00,
2013-02-10 02:39:00,37.2,28.8,30.13,East,89,5.2,6.6,71,0.00,,OVC085,0.00,VWS V14.01,2013-02-10 07:39:00,
2013-02-10 02:40:00,37.4,28.4,30.13,East,89,4.4,6.6,70,0.00,,OVC085,0.00,VWS V14.01,2013-02-10 07:40:00,
2013-02-10 02:41:00,37.4,28.4,30.10,East,89,0.0,5.6,70,0.00,,OVC085,0.00,VWS V14.01,2013-02-10 07:41:00,
2013-02-10 02:42:00,37.4,28.4,30.10,East,89,0.0,0.0,70,0.00,,OVC085,0.00,VWS V14.01,2013-02-10 07:42:00,
2013-02-10 02:43:00,37.4,28.4,30.10,East,89,0.0,0.0,70,0.00,,OVC200,0.00,VWS V14.01,2013-02-10 07:43:00,
2013-02-10 02:44:00,37.4,28.4,30.10,East,89,0.0,0.0,70,0.00,,OVC085,0.00,VWS V14.01,2013-02-10 07:44:00,
2013-02-10 02:45:00,37.4,28.4,30.10,East,89,0.0,0.0,70,0.00,,OVC085,0.00,VWS V14.01,2013-02-10 07:45:00,
2013-02-10 02:46:00,37.4,28.4,30.10,East,85,3.7,7.5,70,0.00,,OVC085,0.00,VWS V14.01,2013-02-10 07:46:00,
2013-02-10 02:47:00,37.4,28.4,30.10,East,85,4.4,6.6,70,0.00,,OVC085,0.00,VWS V14.01,2013-02-10 07:47:00,
2013-02-10 02:48:00,37.4,28.4,30.10,East,98,5.9,8.5,70,0.00,,OVC085,0.00,VWS V14.01,2013-02-10 07:48:00,
2013-02-10 02:49:00,37.4,28.4,30.10,East,98,0.0,0.0,70,0.00,,OVC200,0.00,VWS V14.01,2013-02-10 07:49:00,
2013-02-10 02:50:00,37.4,28.4,30.10,East,98,0.0,0.0,70,0.00,,OVC085,0.00,VWS V14.01,2013-02-10 07:50:00,
2013-02-10 02:51:00,37.4,28.4,30.10,East,98,0.0,0.0,70,0.00,,OVC085,0.00,VWS V14.01,2013-02-10 07:51:00,
2013-02-10 02:52:00,37.6,28.6,30.10,East,98,0.0,0.0,70,0.00,,OVC085,0.00,VWS V14.01,2013-02-10 07:52:00,
2013-02-10 02:53:00,37.6,28.6,30.10,East,98,0.0,0.0,70,0.00,,OVC085,0.00,VWS V14.01,2013-02-10 07:53:00,
2013-02-10 02:54:00,37.6,28.6,30.10,East,98,0.0,4.7,70,0.00,,OVC200,0.00,VWS V14.01,2013-02-10 07:54:00,
2013-02-10 02:55:00,37.6,28.6,30.10,East,98,0.0,4.7,70,0.00,,OVC085,0.00,VWS V14.01,2013-02-10 07:55:00,
2013-02-10 02:56:00,37.6,28.6,30.10,East,98,0.0,5.6,70,0.00,,OVC085,0.00,VWS V14.01,2013-02-10 07:56:00,
2013-02-10 02:57:00,37.6,28.6,30.10,East,98,0.0,0.0,70,0.00,,OVC085,0.00,VWS V14.01,2013-02-10 07:57:00,
2013-02-10 02:58:00,37.6,28.6,30.10,East,98,0.0,0.0,70,0.00,,OVC085,0.00,VWS V14.01,2013-02-10 07:58:00,
2013-02-10 02:59:00,37.4,28.4,30.10,East,98,0.0,0.0,70,0.00,,OVC200,0.00,VWS V14.01,2013-02-10 07:59:00,
2013-02-10 03:00:00,37.4,28.4,30.10,East,98,0.0,0.0,70,0.00,,OVC085,0.00,VWS V14.01,2013-02-10 08:00:00,
2013-02-10 03:01:00,37.4,28.4,30.10,East,98,0.0,0.0,70,0.00,,OVC085,0.00,VWS V14.01,2013-02-10 08:01:00,
2013-02-10 03:02:00,37.4,28.4,30.10,East,98,4.4,5.6,70,0.00,,OVC085,0.00,VWS V14.01,2013-02-10 08:02:00,
2013-02-10 03:03:00,37.4,28.4,30.10,East,98,0.0,5.6,70,0.00,,OVC130,0.00,VWS V14.01,2013-02-10 08:03:00,
2013-02-10 03:04:00,37.4,28.4,30.10,East,98,0.0,0.0,70,0.00,,OVC200,0.00,VWS V14.01,2013-02-10 08:04:00,
2013-02-10 03:05:00,37.4,28.4,30.10,East,98,0.0,0.0,70,0.00,,OVC130,0.00,VWS V14.01,2013-02-10 08:05:00,
2013-02-10 03:06:00,37.4,28.4,30.10,East,98,0.0,0.0,70,0.00,,OVC130,0.00,VWS V14.01,2013-02-10 08:06:00,
2013-02-10 03:07:00,37.4,28.4,30.10,East,98,0.0,0.0,70,0.00,,OVC130,0.00,VWS V14.01,2013-02-10 08:07:00,
2013-02-10 03:08:00,37.4,28.4,30.10,East,98,0.0,0.0,70,0.00,,OVC130,0.00,VWS V14.01,2013-02-10 08:08:00,
2013-02-10 03:09:00,37.4,28.4,30.10,East,98,0.0,0.0,70,0.00,,OVC200,0.00,VWS V14.01,2013-02-10 08:09:00,
2013-02-10 03:10:00,37.4,28.4,30.10,East,98,0.0,0.0,70,0.00,,OVC130,0.00,VWS V14.01,2013-02-10 08:10:00,
2013-02-10 03:11:00,37.4,28.4,30.10,East,98,0.0,0.0,70,0.00,,OVC130,0.00,VWS V14.01,2013-02-10 08:11:00,
2013-02-10 03:12:00,37.4,28.4,30.10,East,98,0.0,4.7,70,0.00,,OVC130,0.00,VWS V14.01,2013-02-10 08:12:00,
2013-02-10 03:13:00,37.4,28.4,30.10,East,98,0.0,0.0,70,0.00,,OVC130,0.00,VWS V14.01,2013-02-10 08:13:00,
2013-02-10 03:14:00,37.4,28.4,30.10,East,98,3.7,4.7,70,0.00,,OVC200,0.00,VWS V14.01,2013-02-10 08:14:00,
2013-02-10 03:15:00,37.4,28.4,30.10,East,98,0.0,5.6,70,0.00,,OVC130,0.00,VWS V14.01,2013-02-10 08:15:00,
2013-02-10 03:16:00,37.4,28.4,30.10,East,98,0.0,4.7,70,0.00,,OVC130,0.00,VWS V14.01,2013-02-10 08:16:00,
2013-02-10 03:17:00,37.4,28.4,30.10,East,98,0.0,4.7,70,0.00,,OVC130,0.00,VWS V14.01,2013-02-10 08:17:00,
2013-02-10 03:18:00,37.2,28.8,30.10,East,98,0.0,0.0,71,0.00,,OVC130,0.00,VWS V14.01,2013-02-10 08:18:00,
2013-02-10 03:19:00,37.2,28.8,30.10,East,98,0.0,0.0,71,0.00,,OVC200,0.00,VWS V14.01,2013-02-10 08:19:00,
2013-02-10 03:20:00,37.2,28.8,30.10,East,98,0.0,0.0,71,0.00,,OVC130,0.00,VWS V14.01,2013-02-10 08:20:00,
2013-02-10 03:21:00,37.2,28.8,30.10,East,98,0.0,0.0,71,0.00,,OVC130,0.00,VWS V14.01,2013-02-10 08:21:00,
2013-02-10 03:22:00,37.0,28.7,30.10,East,98,0.0,0.0,71,0.00,,OVC130,0.00,VWS V14.01,2013-02-10 08:22:00,
2013-02-10 03:23:00,37.0,28.7,30.10,East,98,0.0,0.0,71,0.00,,OVC130,0.00,VWS V14.01,2013-02-10 08:23:00,
2013-02-10 03:24:00,37.0,28.7,30.10,East,98,0.0,0.0,71,0.00,,OVC200,0.00,VWS V14.01,2013-02-10 08:24:00,
2013-02-10 03:25:00,36.9,28.5,30.10,East,98,0.0,0.0,71,0.00,,OVC130,0.00,VWS V14.01,2013-02-10 08:25:00,
2013-02-10 03:26:00,36.9,28.5,30.10,East,98,0.0,0.0,71,0.00,,OVC130,0.00,VWS V14.01,2013-02-10 08:26:00,
2013-02-10 03:27:00,36.9,28.5,30.10,East,98,0.0,0.0,71,0.00,,OVC130,0.00,VWS V14.01,2013-02-10 08:27:00,
2013-02-10 03:28:00,36.7,28.3,30.10,East,98,0.0,0.0,71,0.00,,OVC130,0.00,VWS V14.01,2013-02-10 08:28:00,
2013-02-10 03:29:00,36.7,28.3,30.10,East,98,4.4,6.6,71,0.00,,OVC200,0.00,VWS V14.01,2013-02-10 08:29:00,
2013-02-10 03:31:00,36.7,28.3,30.10,East,98,4.4,6.6,71,0.00,,OVC130,0.00,VWS V14.01,2013-02-10 08:31:00,
2013-02-10 03:32:00,36.5,28.1,30.10,East,89,5.2,6.6,71,0.00,,OVC130,0.00,VWS V14.01,2013-02-10 08:32:00,
2013-02-10 03:33:00,36.5,28.1,30.10,ENE,75,5.9,8.5,71,0.00,,OVC130,0.00,VWS V14.01,2013-02-10 08:33:00,
2013-02-10 03:34:00,36.3,28.5,30.10,ENE,76,4.4,5.6,73,0.00,,OVC200,0.00,VWS V14.01,2013-02-10 08:34:00,
2013-02-10 03:35:00,36.3,28.5,30.10,ENE,76,4.4,8.5,73,0.00,,OVC130,0.00,VWS V14.01,2013-02-10 08:35:00,
2013-02-10 03:36:00,36.3,28.5,30.10,ENE,76,3.7,5.6,73,0.00,,OVC130,0.00,VWS V14.01,2013-02-10 08:36:00,
2013-02-10 03:37:00,36.1,28.4,30.10,ENE,76,0.0,5.6,73,0.00,,OVC130,0.00,VWS V14.01,2013-02-10 08:37:00,
2013-02-10 03:38:00,36.1,28.4,30.10,ENE,76,0.0,0.0,73,0.00,,OVC130,0.00,VWS V14.01,2013-02-10 08:38:00,
2013-02-10 03:39:00,36.1,28.4,30.10,ENE,76,0.0,0.0,73,0.00,,OVC200,0.00,VWS V14.01,2013-02-10 08:39:00,
2013-02-10 03:40:00,36.1,28.4,30.10,ENE,76,0.0,0.0,73,0.00,,OVC130,0.00,VWS V14.01,2013-02-10 08:40:00,
2013-02-10 03:41:00,36.1,28.4,30.10,ENE,76,0.0,0.0,73,0.00,,OVC130,0.00,VWS V14.01,2013-02-10 08:41:00,
2013-02-10 03:42:00,36.0,28.8,30.10,ENE,76,0.0,0.0,75,0.00,,OVC130,0.00,VWS V14.01,2013-02-10 08:42:00,
2013-02-10 03:43:00,36.0,29.3,30.10,ENE,76,0.0,0.0,76,0.00,,OVC130,0.00,VWS V14.01,2013-02-10 08:43:00,
2013-02-10 03:44:00,36.0,29.3,30.10,ENE,76,0.0,0.0,76,0.00,,OVC100,0.00,VWS V14.01,2013-02-10 08:44:00,
2013-02-10 03:45:00,36.0,29.3,30.10,ENE,76,0.0,0.0,76,0.00,,OVC130,0.00,VWS V14.01,2013-02-10 08:45:00,
2013-02-10 03:46:00,36.0,29.3,30.10,ENE,76,0.0,0.0,76,0.00,,OVC130,0.00,VWS V14.01,2013-02-10 08:46:00,
2013-02-10 03:47:00,36.0,29.8,30.10,ENE,76,0.0,0.0,78,0.00,,OVC130,0.00,VWS V14.01,2013-02-10 08:47:00,
2013-02-10 03:48:00,36.0,29.8,30.10,ENE,76,0.0,0.0,78,0.00,,OVC130,0.00,VWS V14.01,2013-02-10 08:48:00,
2013-02-10 03:49:00,35.8,31.2,30.10,ENE,76,0.0,0.0,83,0.00,,OVC100,0.00,VWS V14.01,2013-02-10 08:49:00,
2013-02-10 03:50:00,35.8,31.2,30.10,ENE,76,0.0,0.0,83,0.00,,OVC130,0.00,VWS V14.01,2013-02-10 08:50:00,
2013-02-10 03:51:00,35.8,31.2,30.10,ENE,76,0.0,0.0,83,0.00,,OVC130,0.00,VWS V14.01,2013-02-10 08:51:00,
2013-02-10 03:52:00,35.8,31.2,30.10,ENE,76,0.0,0.0,83,0.00,,OVC130,0.00,VWS V14.01,2013-02-10 08:52:00,
2013-02-10 03:53:00,35.8,31.7,30.10,ENE,76,0.0,0.0,85,0.00,,OVC130,0.00,VWS V14.01,2013-02-10 08:53:00,
2013-02-10 03:54:00,35.8,32.2,30.10,ENE,76,0.0,0.0,87,0.00,,OVC100,0.00,VWS V14.01,2013-02-10 08:54:00,
2013-02-10 03:55:00,35.8,32.2,30.10,ENE,76,0.0,0.0,87,0.00,,OVC130,0.00,VWS V14.01,2013-02-10 08:55:00,
2013-02-10 03:56:00,35.8,32.2,30.10,ENE,76,0.0,0.0,87,0.00,,OVC130,0.00,VWS V14.01,2013-02-10 08:56:00,
2013-02-10 03:57:00,35.6,32.0,30.10,ENE,76,0.0,0.0,87,0.00,,OVC130,0.00,VWS V14.01,2013-02-10 08:57:00,
2013-02-10 03:58:00,35.6,32.0,30.10,ENE,76,0.0,0.0,87,0.00,,OVC130,0.00,VWS V14.01,2013-02-10 08:58:00,
2013-02-10 03:59:00,35.6,31.5,30.10,ENE,76,0.0,0.0,85,0.00,,OVC100,0.00,VWS V14.01,2013-02-10 08:59:00,
2013-02-10 04:00:00,35.6,31.5,30.10,ENE,76,0.0,0.0,85,0.00,,OVC130,0.00,VWS V14.01,2013-02-10 09:00:00,
2013-02-10 04:01:00,35.6,31.5,30.10,ENE,76,0.0,0.0,85,0.00,,OVC130,0.00,VWS V14.01,2013-02-10 09:01:00,
2013-02-10 04:02:00,35.6,31.5,30.10,ENE,76,0.0,0.0,85,0.00,,OVC130,0.00,VWS V14.01,2013-02-10 09:02:00,
2013-02-10 04:03:00,35.6,31.5,30.10,ENE,76,0.0,0.0,85,0.00,,OVC130,0.00,VWS V14.01,2013-02-10 09:03:00,
2013-02-10 04:04:00,35.4,31.4,30.10,ENE,76,0.0,0.0,85,0.00,,OVC100,0.00,VWS V14.01,2013-02-10 09:04:00,
2013-02-10 04:05:00,35.4,31.4,30.10,ENE,76,0.0,0.0,85,0.00,,OVC130,0.00,VWS V14.01,2013-02-10 09:05:00,
2013-02-10 04:06:00,35.4,31.4,30.10,ENE,76,0.0,0.0,85,0.00,,OVC130,0.00,VWS V14.01,2013-02-10 09:06:00,
2013-02-10 04:07:00,35.4,31.4,30.10,ENE,76,0.0,0.0,85,0.00,,OVC130,0.00,VWS V14.01,2013-02-10 09:07:00,
2013-02-10 04:08:00,35.4,31.4,30.10,ENE,76,0.0,0.0,85,0.00,,OVC130,0.00,VWS V14.01,2013-02-10 09:08:00,
2013-02-10 04:09:00,35.2,31.2,30.10,ENE,76,0.0,0.0,85,0.00,,OVC100,0.00,VWS V14.01,2013-02-10 09:09:00,
2013-02-10 04:10:00,35.4,31.4,30.10,ENE,76,0.0,0.0,85,0.00,,OVC130,0.00,VWS V14.01,2013-02-10 09:10:00,
2013-02-10 04:11:00,35.2,31.2,30.10,ENE,76,0.0,0.0,85,0.00,,OVC130,0.00,VWS V14.01,2013-02-10 09:11:00,
2013-02-10 04:12:00,35.2,31.7,30.10,ENE,76,0.0,0.0,87,0.00,,OVC130,0.00,VWS V14.01,2013-02-10 09:12:00,
2013-02-10 04:13:00,35.2,31.7,30.10,ENE,76,0.0,0.0,87,0.00,,OVC130,0.00,VWS V14.01,2013-02-10 09:13:00,
2013-02-10 04:14:00,35.2,32.2,30.10,ENE,76,0.0,0.0,88,0.00,,OVC100,0.00,VWS V14.01,2013-02-10 09:14:00,
2013-02-10 04:15:00,35.2,32.2,30.10,ENE,76,0.0,0.0,88,0.00,,OVC130,0.00,VWS V14.01,2013-02-10 09:15:00,
2013-02-10 04:16:00,35.2,32.2,30.10,ENE,76,0.0,0.0,88,0.00,,OVC130,0.00,VWS V14.01,2013-02-10 09:16:00,
2013-02-10 04:17:00,35.2,32.2,30.10,ENE,76,0.0,0.0,88,0.00,,OVC130,0.00,VWS V14.01,2013-02-10 09:17:00,
2013-02-10 04:18:00,35.1,32.0,30.10,ENE,76,0.0,0.0,88,0.00,,OVC130,0.00,VWS V14.01,2013-02-10 09:18:00,
2013-02-10 04:19:00,35.1,32.0,30.10,ENE,76,0.0,0.0,88,0.00,,OVC100,0.00,VWS V14.01,2013-02-10 09:19:00,
2013-02-10 04:20:00,35.1,32.0,30.10,ENE,76,0.0,0.0,88,0.00,,OVC130,0.00,VWS V14.01,2013-02-10 09:20:00,
2013-02-10 04:21:00,35.1,32.0,30.10,ENE,76,0.0,0.0,88,0.00,,OVC130,0.00,VWS V14.01,2013-02-10 09:21:00,
2013-02-10 04:22:00,35.1,32.5,30.10,ENE,76,0.0,0.0,90,0.00,,OVC130,0.00,VWS V14.01,2013-02-10 09:22:00,
2013-02-10 04:23:00,35.1,32.5,30.10,ENE,76,0.0,0.0,90,0.00,,OVC130,0.00,VWS V14.01,2013-02-10 09:23:00,
2013-02-10 04:24:00,35.1,32.5,30.10,ENE,76,0.0,0.0,90,0.00,,OVC100,0.00,VWS V14.01,2013-02-10 09:24:00,
2013-02-10 04:25:00,35.1,32.5,30.10,ENE,76,0.0,0.0,90,0.00,,OVC130,0.00,VWS V14.01,2013-02-10 09:25:00,
2013-02-10 04:26:00,34.9,32.3,30.10,ENE,76,0.0,0.0,90,0.00,,OVC130,0.00,VWS V14.01,2013-02-10 09:26:00,
2013-02-10 04:27:00,34.9,32.3,30.10,ENE,76,0.0,0.0,90,0.00,,OVC130,0.00,VWS V14.01,2013-02-10 09:27:00,
2013-02-10 04:28:00,34.9,32.3,30.10,ENE,76,0.0,0.0,90,0.00,,OVC130,0.00,VWS V14.01,2013-02-10 09:28:00,
2013-02-10 04:29:00,34.9,32.3,30.10,ENE,76,0.0,0.0,90,0.00,,OVC130,0.00,VWS V14.01,2013-02-10 09:29:00,
2013-02-10 04:30:00,34.9,32.3,30.10,ENE,76,0.0,0.0,90,0.00,,OVC100,0.00,VWS V14.01,2013-02-10 09:30:00,
2013-02-10 04:31:00,34.9,32.3,30.10,ENE,76,0.0,0.0,90,0.00,,OVC130,0.00,VWS V14.01,2013-02-10 09:31:00,
2013-02-10 04:32:00,34.9,31.8,30.10,ENE,76,0.0,0.0,88,0.00,,OVC130,0.00,VWS V14.01,2013-02-10 09:32:00,
2013-02-10 04:33:00,34.9,31.8,30.10,ENE,76,0.0,0.0,88,0.00,,OVC130,0.00,VWS V14.01,2013-02-10 09:33:00,
2013-02-10 04:34:00,34.9,31.8,30.10,ENE,76,0.0,0.0,88,0.00,,OVC130,0.00,VWS V14.01,2013-02-10 09:34:00,
2013-02-10 04:35:00,34.9,31.8,30.10,ENE,76,0.0,0.0,88,0.00,,OVC100,0.00,VWS V14.01,2013-02-10 09:35:00,
2013-02-10 04:36:00,34.9,31.8,30.10,ENE,76,0.0,0.0,88,0.00,,OVC130,0.00,VWS V14.01,2013-02-10 09:36:00,
2013-02-10 04:37:00,34.9,31.8,30.10,ENE,76,0.0,0.0,88,0.00,,OVC130,0.00,VWS V14.01,2013-02-10 09:37:00,
2013-02-10 04:38:00,34.9,31.8,30.10,ENE,76,0.0,0.0,88,0.00,,OVC130,0.00,VWS V14.01,2013-02-10 09:38:00,
2013-02-10 04:39:00,34.9,31.8,30.10,ENE,76,0.0,0.0,88,0.00,,OVC130,0.00,VWS V14.01,2013-02-10 09:39:00,
2013-02-10 04:40:00,34.9,31.8,30.10,ENE,76,0.0,0.0,88,0.00,,-RA,0.00,VWS V14.01,2013-02-10 09:40:00,
2013-02-10 04:41:00,34.9,31.8,30.10,ENE,76,0.0,0.0,88,0.00,,OVC130,0.00,VWS V14.01,2013-02-10 09:41:00,
2013-02-10 04:42:00,34.9,31.8,30.07,ENE,76,0.0,0.0,88,0.00,,OVC130,0.00,VWS V14.01,2013-02-10 09:42:00,
2013-02-10 04:43:00,34.9,31.8,30.07,ENE,76,0.0,0.0,88,0.00,,OVC130,0.00,VWS V14.01,2013-02-10 09:43:00,
2013-02-10 04:44:00,34.9,31.8,30.07,ENE,76,0.0,0.0,88,0.00,,OVC130,0.00,VWS V14.01,2013-02-10 09:44:00,
2013-02-10 04:45:00,34.7,31.6,30.07,ENE,76,0.0,0.0,88,0.00,,-RA,0.00,VWS V14.01,2013-02-10 09:45:00,
2013-02-10 04:46:00,34.7,31.6,30.07,ENE,76,0.0,0.0,88,0.00,,OVC130,0.00,VWS V14.01,2013-02-10 09:46:00,
2013-02-10 04:47:00,34.7,31.6,30.07,ENE,76,0.0,0.0,88,0.00,,OVC130,0.00,VWS V14.01,2013-02-10 09:47:00,
2013-02-10 04:48:00,34.7,31.6,30.07,ENE,76,0.0,0.0,88,0.00,,OVC130,0.00,VWS V14.01,2013-02-10 09:48:00,
2013-02-10 04:49:00,34.7,31.1,30.07,ENE,76,0.0,0.0,87,0.00,,OVC130,0.00,VWS V14.01,2013-02-10 09:49:00,
2013-02-10 04:50:00,34.7,31.1,30.07,ENE,76,0.0,0.0,87,0.00,,-RA,0.00,VWS V14.01,2013-02-10 09:50:00,
2013-02-10 04:51:00,34.7,31.1,30.07,ENE,76,0.0,0.0,87,0.00,,OVC130,0.00,VWS V14.01,2013-02-10 09:51:00,
2013-02-10 04:52:00,34.7,31.1,30.07,ENE,76,0.0,0.0,87,0.00,,OVC130,0.00,VWS V14.01,2013-02-10 09:52:00,
2013-02-10 04:53:00,34.7,31.1,30.07,ENE,76,0.0,0.0,87,0.00,,OVC130,0.00,VWS V14.01,2013-02-10 09:53:00,
2013-02-10 04:54:00,34.7,31.1,30.07,ENE,76,0.0,0.0,87,0.00,,OVC130,0.00,VWS V14.01,2013-02-10 09:54:00,
2013-02-10 04:55:00,34.7,31.1,30.07,ENE,76,0.0,0.0,87,0.00,,-RA,0.00,VWS V14.01,2013-02-10 09:55:00,
2013-02-10 04:56:00,34.7,31.1,30.07,ENE,76,0.0,0.0,87,0.00,,OVC130,0.00,VWS V14.01,2013-02-10 09:56:00,
2013-02-10 04:57:00,34.7,31.1,30.07,ENE,76,0.0,0.0,87,0.00,,OVC130,0.00,VWS V14.01,2013-02-10 09:57:00,
2013-02-10 04:58:00,34.7,31.1,30.07,ENE,76,0.0,0.0,87,0.00,,OVC130,0.00,VWS V14.01,2013-02-10 09:58:00,
2013-02-10 04:59:00,34.7,31.1,30.07,ENE,76,0.0,0.0,87,0.00,,OVC130,0.00,VWS V14.01,2013-02-10 09:59:00,
2013-02-10 05:00:00,34.7,31.1,30.07,ENE,76,0.0,0.0,87,0.00,,-RA,0.00,VWS V14.01,2013-02-10 10:00:00,
2013-02-10 05:01:00,34.7,31.1,30.07,ENE,76,0.0,0.0,87,0.00,,OVC130,0.00,VWS V14.01,2013-02-10 10:01:00,
2013-02-10 05:02:00,34.7,31.1,30.07,ENE,76,0.0,0.0,87,0.00,,OVC130,0.00,VWS V14.01,2013-02-10 10:02:00,
2013-02-10 05:03:00,34.7,31.1,30.07,ENE,76,0.0,0.0,87,0.00,,OVC130,0.00,VWS V14.01,2013-02-10 10:03:00,
2013-02-10 05:04:00,34.7,31.1,30.07,ENE,76,0.0,0.0,87,0.00,,OVC130,0.00,VWS V14.01,2013-02-10 10:04:00,
2013-02-10 05:05:00,34.7,31.1,30.07,ENE,76,0.0,0.0,87,0.00,,-RA,0.00,VWS V14.01,2013-02-10 10:05:00,
2013-02-10 05:06:00,34.7,31.1,30.07,ENE,76,0.0,0.0,87,0.00,,OVC130,0.00,VWS V14.01,2013-02-10 10:06:00,
2013-02-10 05:07:00,34.7,31.1,30.07,ENE,76,0.0,0.0,87,0.00,,OVC130,0.00,VWS V14.01,2013-02-10 10:07:00,
2013-02-10 05:08:00,34.7,31.1,30.07,ENE,76,0.0,0.0,87,0.00,,OVC130,0.00,VWS V14.01,2013-02-10 10:08:00,
2013-02-10 05:09:00,34.7,31.1,30.07,ENE,76,0.0,0.0,87,0.00,,OVC130,0.00,VWS V14.01,2013-02-10 10:09:00,
2013-02-10 05:10:00,34.9,31.3,30.07,ENE,76,0.0,0.0,87,0.00,,-RA,0.00,VWS V14.01,2013-02-10 10:10:00,
2013-02-10 05:11:00,34.9,31.3,30.07,ENE,76,0.0,0.0,87,0.00,,OVC130,0.00,VWS V14.01,2013-02-10 10:11:00,
2013-02-10 05:12:00,34.9,31.3,30.07,ENE,76,0.0,0.0,87,0.00,,OVC130,0.00,VWS V14.01,2013-02-10 10:12:00,
2013-02-10 05:13:00,34.9,31.3,30.07,ENE,76,0.0,0.0,87,0.00,,OVC130,0.00,VWS V14.01,2013-02-10 10:13:00,
2013-02-10 05:14:00,34.9,31.3,30.07,ENE,76,0.0,0.0,87,0.00,,OVC130,0.00,VWS V14.01,2013-02-10 10:14:00,
2013-02-10 05:15:00,34.7,31.1,30.07,ENE,76,0.0,0.0,87,0.00,,-RA,0.00,VWS V14.01,2013-02-10 10:15:00,
2013-02-10 05:16:00,34.7,31.1,30.07,ENE,76,0.0,0.0,87,0.00,,OVC130,0.00,VWS V14.01,2013-02-10 10:16:00,
2013-02-10 05:17:00,34.7,31.1,30.07,ENE,76,0.0,0.0,87,0.00,,OVC130,0.00,VWS V14.01,2013-02-10 10:17:00,
2013-02-10 05:18:00,34.7,31.1,30.07,ENE,76,0.0,0.0,87,0.00,,OVC130,0.00,VWS V14.01,2013-02-10 10:18:00,
2013-02-10 05:19:00,34.9,31.3,30.07,ENE,76,0.0,0.0,87,0.00,,OVC130,0.00,VWS V14.01,2013-02-10 10:19:00,
2013-02-10 05:20:00,34.7,31.1,30.07,ENE,76,0.0,0.0,87,0.00,,-RA,0.00,VWS V14.01,2013-02-10 10:20:00,
2013-02-10 05:21:00,34.7,31.1,30.07,ENE,76,0.0,0.0,87,0.00,,OVC130,0.00,VWS V14.01,2013-02-10 10:21:00,
2013-02-10 05:22:00,34.9,31.3,30.07,ENE,76,0.0,0.0,87,0.00,,OVC130,0.00,VWS V14.01,2013-02-10 10:22:00,
2013-02-10 05:23:00,34.9,31.3,30.07,ENE,76,0.0,0.0,87,0.00,,OVC130,0.00,VWS V14.01,2013-02-10 10:23:00,
2013-02-10 05:24:00,34.9,31.3,30.07,ENE,76,0.0,0.0,87,0.00,,OVC130,0.00,VWS V14.01,2013-02-10 10:24:00,
2013-02-10 05:25:00,34.9,31.3,30.07,ENE,76,0.0,0.0,87,0.00,,-RA,0.00,VWS V14.01,2013-02-10 10:25:00,
2013-02-10 05:26:00,34.9,31.3,30.07,ENE,76,0.0,0.0,87,0.00,,OVC130,0.00,VWS V14.01,2013-02-10 10:26:00,
2013-02-10 05:27:00,34.9,31.3,30.07,ENE,76,0.0,0.0,87,0.00,,OVC130,0.00,VWS V14.01,2013-02-10 10:27:00,
2013-02-10 05:28:00,34.9,31.3,30.07,ENE,76,0.0,0.0,87,0.00,,OVC130,0.00,VWS V14.01,2013-02-10 10:28:00,
2013-02-10 05:29:00,34.9,31.3,30.07,ENE,76,0.0,0.0,87,0.00,,OVC130,0.00,VWS V14.01,2013-02-10 10:29:00,
2013-02-10 05:30:00,34.9,31.3,30.07,ENE,76,0.0,0.0,87,0.00,,-RA,0.00,VWS V14.01,2013-02-10 10:30:00,
2013-02-10 05:31:00,34.9,31.3,30.07,ENE,76,0.0,0.0,87,0.00,,OVC130,0.00,VWS V14.01,2013-02-10 10:31:00,
2013-02-10 05:32:00,34.9,31.3,30.07,ENE,76,0.0,0.0,87,0.00,,OVC130,0.00,VWS V14.01,2013-02-10 10:32:00,
2013-02-10 05:33:00,34.9,31.3,30.07,ENE,76,0.0,0.0,87,0.00,,OVC130,0.00,VWS V14.01,2013-02-10 10:33:00,
2013-02-10 05:34:00,34.9,31.3,30.07,ENE,76,0.0,0.0,87,0.00,,OVC130,0.00,VWS V14.01,2013-02-10 10:34:00,
2013-02-10 05:35:00,34.7,31.1,30.07,ENE,76,0.0,0.0,87,0.00,,-RA,0.00,VWS V14.01,2013-02-10 10:35:00,
2013-02-10 05:36:00,34.7,31.1,30.07,ENE,76,0.0,0.0,87,0.00,,OVC130,0.00,VWS V14.01,2013-02-10 10:36:00,
2013-02-10 05:37:00,34.7,31.1,30.07,ENE,76,0.0,0.0,87,0.00,,OVC130,0.00,VWS V14.01,2013-02-10 10:37:00,
2013-02-10 05:38:00,34.7,31.1,30.07,ENE,76,0.0,0.0,87,0.00,,OVC130,0.00,VWS V14.01,2013-02-10 10:38:00,
2013-02-10 05:39:00,34.9,31.3,30.07,ENE,76,0.0,0.0,87,0.00,,OVC130,0.00,VWS V14.01,2013-02-10 10:39:00,
2013-02-10 05:40:00,34.9,31.3,30.07,ENE,76,0.0,0.0,87,0.00,,OVC100,0.00,VWS V14.01,2013-02-10 10:40:00,
2013-02-10 05:41:00,34.9,31.3,30.07,ENE,76,0.0,0.0,87,0.00,,OVC130,0.00,VWS V14.01,2013-02-10 10:41:00,
2013-02-10 05:42:00,34.9,31.3,30.07,ENE,76,0.0,0.0,87,0.00,,OVC130,0.00,VWS V14.01,2013-02-10 10:42:00,
2013-02-10 05:43:00,34.9,31.3,30.07,ENE,76,0.0,0.0,87,0.00,,OVC130,0.00,VWS V14.01,2013-02-10 10:43:00,
2013-02-10 05:44:00,34.9,31.3,30.07,ENE,76,0.0,0.0,87,0.00,,OVC130,0.00,VWS V14.01,2013-02-10 10:44:00,
2013-02-10 05:45:00,34.9,31.3,30.07,ENE,76,0.0,0.0,87,0.00,,OVC100,0.00,VWS V14.01,2013-02-10 10:45:00,
2013-02-10 05:46:00,34.9,31.3,30.07,ENE,76,0.0,0.0,87,0.00,,OVC130,0.00,VWS V14.01,2013-02-10 10:46:00,
2013-02-10 05:47:00,34.9,31.3,30.07,ENE,76,0.0,0.0,87,0.00,,OVC130,0.00,VWS V14.01,2013-02-10 10:47:00,
2013-02-10 05:48:00,34.9,31.3,30.07,ENE,76,0.0,0.0,87,0.00,,OVC130,0.00,VWS V14.01,2013-02-10 10:48:00,
2013-02-10 05:49:00,34.9,31.3,30.07,ENE,76,0.0,0.0,87,0.00,,OVC130,0.00,VWS V14.01,2013-02-10 10:49:00,
2013-02-10 05:50:00,34.9,31.3,30.07,ENE,76,0.0,0.0,87,0.00,,OVC100,0.00,VWS V14.01,2013-02-10 10:50:00,
2013-02-10 05:51:00,34.9,31.3,30.07,ENE,76,0.0,0.0,87,0.00,,OVC130,0.00,VWS V14.01,2013-02-10 10:51:00,
2013-02-10 05:52:00,34.9,31.3,30.07,ENE,76,0.0,0.0,87,0.00,,OVC130,0.00,VWS V14.01,2013-02-10 10:52:00,
2013-02-10 05:53:00,34.9,31.3,30.07,ENE,76,0.0,0.0,87,0.00,,OVC130,0.00,VWS V14.01,2013-02-10 10:53:00,
2013-02-10 05:54:00,34.9,31.3,30.07,ENE,76,0.0,0.0,87,0.00,,OVC130,0.00,VWS V14.01,2013-02-10 10:54:00,
2013-02-10 05:55:00,35.1,31.5,30.07,ENE,76,0.0,0.0,87,0.00,,OVC100,0.00,VWS V14.01,2013-02-10 10:55:00,
2013-02-10 05:56:00,35.1,31.5,30.07,ENE,76,0.0,0.0,87,0.00,,OVC130,0.00,VWS V14.01,2013-02-10 10:56:00,
2013-02-10 05:57:00,35.1,31.5,30.07,ENE,76,0.0,0.0,87,0.00,,OVC130,0.00,VWS V14.01,2013-02-10 10:57:00,
2013-02-10 05:58:00,35.1,31.5,30.07,ENE,76,0.0,0.0,87,0.00,,OVC130,0.00,VWS V14.01,2013-02-10 10:58:00,
2013-02-10 05:59:00,35.1,31.5,30.07,ENE,76,0.0,0.0,87,0.00,,OVC130,0.00,VWS V14.01,2013-02-10 10:59:00,
2013-02-10 06:00:00,35.1,31.5,30.07,ENE,76,0.0,0.0,87,0.00,,OVC100,0.00,VWS V14.01,2013-02-10 11:00:00,
2013-02-10 06:01:00,35.1,31.5,30.07,ENE,76,0.0,0.0,87,0.00,,OVC130,0.00,VWS V14.01,2013-02-10 11:01:00,
2013-02-10 06:02:00,35.1,31.5,30.07,ENE,76,0.0,0.0,87,0.00,,OVC130,0.00,VWS V14.01,2013-02-10 11:02:00,
2013-02-10 06:03:00,35.1,31.5,30.07,ENE,76,0.0,0.0,87,0.00,,OVC130,0.00,VWS V14.01,2013-02-10 11:03:00,
2013-02-10 06:04:00,35.1,31.5,30.07,ENE,76,0.0,0.0,87,0.00,,OVC130,0.00,VWS V14.01,2013-02-10 11:04:00,
2013-02-10 06:05:00,35.1,31.5,30.07,ENE,76,0.0,0.0,87,0.00,,OVC130,0.00,VWS V14.01,2013-02-10 11:05:00,
2013-02-10 06:06:00,35.2,31.7,30.07,ENE,76,0.0,0.0,87,0.00,,OVC100,0.00,VWS V14.01,2013-02-10 11:06:00,
2013-02-10 06:07:00,35.2,31.7,30.07,ENE,76,0.0,0.0,87,0.00,,OVC130,0.00,VWS V14.01,2013-02-10 11:07:00,
2013-02-10 06:08:00,35.2,31.7,30.07,ENE,76,0.0,0.0,87,0.00,,OVC130,0.00,VWS V14.01,2013-02-10 11:08:00,
2013-02-10 06:09:00,35.2,31.7,30.07,ENE,76,0.0,0.0,87,0.00,,OVC130,0.00,VWS V14.01,2013-02-10 11:09:00,
2013-02-10 06:10:00,35.2,31.7,30.07,ENE,76,0.0,0.0,87,0.00,,OVC130,0.00,VWS V14.01,2013-02-10 11:10:00,
2013-02-10 06:11:00,35.2,31.7,30.07,ENE,76,0.0,0.0,87,0.00,,OVC100,0.00,VWS V14.01,2013-02-10 11:11:00,
2013-02-10 06:12:00,35.4,31.9,30.07,ENE,76,0.0,0.0,87,0.00,,OVC130,0.00,VWS V14.01,2013-02-10 11:12:00,
2013-02-10 06:13:00,35.4,31.9,30.07,ENE,76,0.0,0.0,87,0.00,,OVC130,0.00,VWS V14.01,2013-02-10 11:13:00,
2013-02-10 06:14:00,35.4,31.9,30.07,ENE,76,0.0,0.0,87,0.00,,OVC130,0.00,VWS V14.01,2013-02-10 11:14:00,
2013-02-10 06:15:00,35.4,31.9,30.07,ENE,76,0.0,0.0,87,0.00,,OVC130,0.00,VWS V14.01,2013-02-10 11:15:00,
2013-02-10 06:16:00,35.4,31.9,30.07,ENE,76,0.0,0.0,87,0.00,,OVC100,0.00,VWS V14.01,2013-02-10 11:16:00,
2013-02-10 06:17:00,35.4,31.9,30.07,ENE,76,0.0,0.0,87,0.00,,OVC130,0.00,VWS V14.01,2013-02-10 11:17:00,
2013-02-10 06:18:00,35.4,31.9,30.07,ENE,76,0.0,0.0,87,0.00,,OVC130,0.00,VWS V14.01,2013-02-10 11:18:00,
2013-02-10 06:19:00,35.4,31.9,30.07,ENE,76,0.0,0.0,87,0.00,,OVC130,0.00,VWS V14.01,2013-02-10 11:19:00,
2013-02-10 06:20:00,35.6,32.0,30.07,ENE,76,0.0,0.0,87,0.00,,OVC130,0.00,VWS V14.01,2013-02-10 11:20:00,
2013-02-10 06:21:00,35.6,32.0,30.07,ENE,76,0.0,0.0,87,0.00,,OVC100,0.00,VWS V14.01,2013-02-10 11:21:00,
2013-02-10 06:22:00,35.6,32.0,30.07,ENE,76,0.0,0.0,87,0.00,,OVC130,0.00,VWS V14.01,2013-02-10 11:22:00,
2013-02-10 06:23:00,35.6,32.0,30.07,ENE,76,0.0,0.0,87,0.00,,OVC130,0.00,VWS V14.01,2013-02-10 11:23:00,
2013-02-10 06:24:00,35.6,32.0,30.07,ENE,76,0.0,0.0,87,0.00,,OVC130,0.00,VWS V14.01,2013-02-10 11:24:00,
2013-02-10 06:25:00,35.6,32.0,30.07,ENE,76,0.0,0.0,87,0.00,,OVC130,0.00,VWS V14.01,2013-02-10 11:25:00,
2013-02-10 06:26:00,35.8,32.2,30.07,ENE,76,0.0,0.0,87,0.00,,OVC100,0.00,VWS V14.01,2013-02-10 11:26:00,
2013-02-10 06:27:00,35.8,32.2,30.07,ENE,76,0.0,0.0,87,0.00,,OVC130,0.00,VWS V14.01,2013-02-10 11:27:00,
2013-02-10 06:28:00,35.8,32.2,30.07,ENE,76,0.0,0.0,87,0.00,,OVC130,0.00,VWS V14.01,2013-02-10 11:28:00,
2013-02-10 06:29:00,35.8,32.2,30.07,ENE,76,0.0,0.0,87,0.00,,OVC130,0.00,VWS V14.01,2013-02-10 11:29:00,
2013-02-10 06:30:00,35.8,32.2,30.07,ENE,76,0.0,0.0,87,0.00,,OVC130,0.00,VWS V14.01,2013-02-10 11:30:00,
2013-02-10 06:31:00,35.8,32.2,30.07,ENE,76,0.0,0.0,87,0.00,,OVC100,0.00,VWS V14.01,2013-02-10 11:31:00,
2013-02-10 06:32:00,35.8,32.2,30.07,ENE,76,0.0,0.0,87,0.00,,OVC130,0.00,VWS V14.01,2013-02-10 11:32:00,
2013-02-10 06:33:00,35.8,32.2,30.07,ENE,76,0.0,0.0,87,0.00,,OVC130,0.00,VWS V14.01,2013-02-10 11:33:00,
2013-02-10 06:34:00,35.8,32.2,30.07,ENE,76,0.0,0.0,87,0.00,,OVC130,0.00,VWS V14.01,2013-02-10 11:34:00,
2013-02-10 06:35:00,35.8,32.2,30.07,ENE,76,0.0,0.0,87,0.00,,OVC130,0.00,VWS V14.01,2013-02-10 11:35:00,
2013-02-10 06:36:00,35.8,32.2,30.07,ENE,76,0.0,0.0,87,0.00,,OVC100,0.00,VWS V14.01,2013-02-10 11:36:00,
2013-02-10 06:37:00,35.8,32.2,30.07,ENE,76,0.0,0.0,87,0.00,,OVC130,0.00,VWS V14.01,2013-02-10 11:37:00,
2013-02-10 06:38:00,35.8,32.2,30.07,ENE,76,0.0,0.0,87,0.00,,OVC130,0.00,VWS V14.01,2013-02-10 11:38:00,
2013-02-10 06:39:00,35.8,32.2,30.07,ENE,76,0.0,0.0,87,0.00,,OVC130,0.00,VWS V14.01,2013-02-10 11:39:00,
2013-02-10 06:40:00,35.8,32.2,30.07,ENE,76,0.0,0.0,87,0.00,,OVC130,0.00,VWS V14.01,2013-02-10 11:40:00,
2013-02-10 06:41:00,35.8,32.2,30.07,ENE,76,0.0,0.0,87,0.00,,OVC130,0.00,VWS V14.01,2013-02-10 11:41:00,
2013-02-10 06:42:00,35.8,32.2,30.07,ENE,76,0.0,0.0,87,0.00,,OVC130,0.00,VWS V14.01,2013-02-10 11:42:00,
2013-02-10 06:43:00,35.8,32.2,30.07,ENE,76,0.0,0.0,87,0.00,,OVC130,0.00,VWS V14.01,2013-02-10 11:43:00,
2013-02-10 06:44:00,35.8,32.2,30.07,ENE,76,0.0,0.0,87,0.00,,OVC130,0.00,VWS V14.01,2013-02-10 11:44:00,
2013-02-10 06:45:00,35.8,32.2,30.07,ENE,76,0.0,0.0,87,0.00,,OVC130,0.00,VWS V14.01,2013-02-10 11:45:00,
2013-02-10 06:46:00,35.8,32.2,30.07,ENE,76,0.0,0.0,87,0.00,,OVC130,0.00,VWS V14.01,2013-02-10 11:46:00,
2013-02-10 06:47:00,35.8,32.2,30.07,ENE,76,0.0,0.0,87,0.00,,OVC130,0.00,VWS V14.01,2013-02-10 11:47:00,
2013-02-10 06:48:00,35.8,32.2,30.07,ENE,76,0.0,0.0,87,0.00,,OVC130,0.00,VWS V14.01,2013-02-10 11:48:00,
2013-02-10 06:49:00,36.0,32.4,30.07,ENE,76,0.0,0.0,87,0.00,,OVC130,0.00,VWS V14.01,2013-02-10 11:49:00,
2013-02-10 06:50:00,36.0,32.4,30.07,ENE,76,0.0,0.0,87,0.00,,OVC130,0.00,VWS V14.01,2013-02-10 11:50:00,
2013-02-10 06:51:00,36.0,32.4,30.07,ENE,76,0.0,0.0,87,0.00,,OVC130,0.00,VWS V14.01,2013-02-10 11:51:00,
2013-02-10 06:52:00,36.0,32.4,30.07,ENE,76,0.0,0.0,87,0.00,,OVC130,0.00,VWS V14.01,2013-02-10 11:52:00,
2013-02-10 06:53:00,36.0,32.4,30.07,ENE,76,0.0,0.0,87,0.00,,OVC130,0.00,VWS V14.01,2013-02-10 11:53:00,
2013-02-10 06:54:00,36.0,32.4,30.07,ENE,76,0.0,0.0,87,0.00,,OVC130,0.00,VWS V14.01,2013-02-10 11:54:00,
2013-02-10 06:55:00,36.0,32.4,30.07,ENE,76,0.0,0.0,87,0.00,,OVC130,0.00,VWS V14.01,2013-02-10 11:55:00,
2013-02-10 06:56:00,36.0,32.4,30.07,ENE,76,0.0,0.0,87,0.00,,OVC130,0.00,VWS V14.01,2013-02-10 11:56:00,
2013-02-10 06:57:00,36.0,32.4,30.07,ENE,76,0.0,0.0,87,0.00,,OVC130,0.00,VWS V14.01,2013-02-10 11:57:00,
2013-02-10 06:58:00,36.0,32.4,30.07,ENE,76,0.0,0.0,87,0.00,,OVC130,0.00,VWS V14.01,2013-02-10 11:58:00,
2013-02-10 06:59:00,36.1,32.6,30.07,ENE,76,0.0,0.0,87,0.00,,OVC130,0.00,VWS V14.01,2013-02-10 11:59:00,
2013-02-10 07:00:00,36.1,32.6,30.07,ENE,76,0.0,0.0,87,0.00,,OVC130,0.00,VWS V14.01,2013-02-10 12:00:00,
2013-02-10 07:01:00,36.1,32.6,30.07,ENE,76,0.0,0.0,87,0.00,,OVC130,0.00,VWS V14.01,2013-02-10 12:01:00,
2013-02-10 07:02:00,36.1,32.6,30.07,ENE,76,0.0,0.0,87,0.00,,OVC130,0.00,VWS V14.01,2013-02-10 12:02:00,
2013-02-10 07:03:00,36.1,33.0,30.07,ENE,76,0.0,0.0,88,0.00,,OVC130,0.00,VWS V14.01,2013-02-10 12:03:00,
2013-02-10 07:04:00,36.1,33.0,30.07,ENE,76,0.0,0.0,88,0.00,,OVC130,0.00,VWS V14.01,2013-02-10 12:04:00,
2013-02-10 07:05:00,36.1,33.0,30.07,ENE,76,0.0,0.0,88,0.00,,OVC130,0.00,VWS V14.01,2013-02-10 12:05:00,
2013-02-10 07:06:00,36.1,33.0,30.07,ENE,76,0.0,0.0,88,0.00,,OVC130,0.00,VWS V14.01,2013-02-10 12:06:00,
2013-02-10 07:07:00,36.1,33.0,30.07,ENE,76,0.0,0.0,88,0.00,,OVC130,0.00,VWS V14.01,2013-02-10 12:07:00,
2013-02-10 07:08:00,36.1,33.0,30.07,ENE,76,0.0,0.0,88,0.00,,OVC130,0.00,VWS V14.01,2013-02-10 12:08:00,
2013-02-10 07:09:00,36.3,33.2,30.07,SSE,158,0.0,6.6,88,0.00,,OVC130,0.00,VWS V14.01,2013-02-10 12:09:00,
2013-02-10 07:10:00,36.3,33.2,30.07,SSE,158,0.0,0.0,88,0.00,,OVC130,0.00,VWS V14.01,2013-02-10 12:10:00,
2013-02-10 07:11:00,36.3,33.2,30.07,SSE,158,0.0,4.7,88,0.00,,OVC130,0.00,VWS V14.01,2013-02-10 12:11:00,
2013-02-10 07:12:00,36.3,33.2,30.07,SSE,158,3.7,6.6,88,0.00,,OVC130,0.00,VWS V14.01,2013-02-10 12:12:00,
2013-02-10 07:13:00,36.3,33.2,30.07,SSE,158,0.0,4.7,88,0.00,,OVC130,0.00,VWS V14.01,2013-02-10 12:13:00,
2013-02-10 07:14:00,36.5,33.4,30.07,SSE,160,6.6,8.5,88,0.00,,OVC130,0.00,VWS V14.01,2013-02-10 12:14:00,
2013-02-10 07:15:00,36.5,33.4,30.07,SSE,160,4.4,8.5,88,0.00,,OVC130,0.00,VWS V14.01,2013-02-10 12:15:00,
2013-02-10 07:16:00,36.7,33.6,30.07,SSE,160,0.0,0.0,88,0.00,,OVC130,0.00,VWS V14.01,2013-02-10 12:16:00,
2013-02-10 07:17:00,36.7,33.6,30.07,SSE,160,0.0,0.0,88,0.00,,OVC130,0.00,VWS V14.01,2013-02-10 12:17:00,
2013-02-10 07:18:00,36.7,33.6,30.07,SSE,160,0.0,0.0,88,0.00,,OVC130,0.00,VWS V14.01,2013-02-10 12:18:00,
2013-02-10 07:19:00,36.7,33.6,30.07,SSE,160,0.0,6.6,88,0.00,,OVC130,0.00,VWS V14.01,2013-02-10 12:19:00,
2013-02-10 07:20:00,36.9,34.2,30.07,SSE,160,0.0,5.6,90,0.00,,OVC130,0.00,VWS V14.01,2013-02-10 12:20:00,
2013-02-10 07:21:00,36.9,34.2,30.07,SSE,165,0.0,8.5,90,0.00,,OVC130,0.00,VWS V14.01,2013-02-10 12:21:00,
2013-02-10 07:22:00,36.9,34.2,30.07,SSE,164,6.6,8.5,90,0.00,,OVC130,0.00,VWS V14.01,2013-02-10 12:22:00,
2013-02-10 07:23:00,37.0,34.4,30.07,SSE,165,5.9,8.5,90,0.00,,OVC130,0.00,VWS V14.01,2013-02-10 12:23:00,
2013-02-10 07:24:00,37.0,34.4,30.07,SSE,153,6.6,8.5,90,0.00,,OVC130,0.00,VWS V14.01,2013-02-10 12:24:00,
2013-02-10 07:25:00,37.0,34.4,30.07,SSE,153,3.7,8.5,90,0.00,,OVC130,0.00,VWS V14.01,2013-02-10 12:25:00,
2013-02-10 07:26:00,37.4,34.8,30.04,SSE,162,6.6,11.3,90,0.00,,OVC130,0.00,VWS V14.01,2013-02-10 12:26:00,
2013-02-10 07:27:00,37.4,34.8,30.04,SE,145,8.9,11.3,90,0.00,,OVC130,0.00,VWS V14.01,2013-02-10 12:27:00,
2013-02-10 07:28:00,37.4,34.8,30.04,SE,141,7.4,11.3,90,0.00,,OVC130,0.00,VWS V14.01,2013-02-10 12:28:00,
2013-02-10 07:29:00,37.6,35.0,30.04,SE,139,5.2,11.3,90,0.00,,OVC130,0.00,VWS V14.01,2013-02-10 12:29:00,
2013-02-10 07:30:00,37.6,35.0,30.04,SE,139,5.2,6.6,90,0.00,,OVC130,0.00,VWS V14.01,2013-02-10 12:30:00,
2013-02-10 07:31:00,37.8,35.1,30.04,SSE,158,5.2,8.5,90,0.00,,OVC130,0.00,VWS V14.01,2013-02-10 12:31:00,
2013-02-10 07:32:00,37.8,35.1,30.04,SSE,158,6.6,8.5,90,0.00,,OVC130,0.00,VWS V14.01,2013-02-10 12:32:00,
2013-02-10 07:33:00,37.9,35.3,30.04,SSE,158,4.4,8.5,90,0.00,,OVC130,0.00,VWS V14.01,2013-02-10 12:33:00,
2013-02-10 07:34:00,37.9,35.3,30.04,SSE,158,5.2,7.5,90,0.00,,OVC130,0.00,VWS V14.01,2013-02-10 12:34:00,
2013-02-10 07:35:00,37.9,35.3,30.04,SSE,158,5.9,7.5,90,0.00,,OVC130,0.00,VWS V14.01,2013-02-10 12:35:00,
2013-02-10 07:36:00,38.1,36.0,30.04,SSE,150,7.4,11.3,92,0.00,,OVC130,0.00,VWS V14.01,2013-02-10 12:36:00,
2013-02-10 07:37:00,38.1,36.0,30.04,SSE,151,8.9,12.2,92,0.00,,OVC130,0.00,VWS V14.01,2013-02-10 12:37:00,
2013-02-10 07:38:00,38.1,36.0,30.04,SSE,150,4.4,11.3,92,0.00,,OVC130,0.00,VWS V14.01,2013-02-10 12:38:00,
2013-02-10 07:39:00,38.3,36.1,30.04,South,181,5.2,7.5,92,0.00,,OVC130,0.00,VWS V14.01,2013-02-10 12:39:00,
2013-02-10 07:40:00,38.3,36.1,30.04,SSE,162,5.2,13.2,92,0.00,,OVC130,0.00,VWS V14.01,2013-02-10 12:40:00,
2013-02-10 07:41:00,38.3,36.1,30.04,South,171,4.4,7.5,92,0.00,,OVC130,0.00,VWS V14.01,2013-02-10 12:41:00,
2013-02-10 07:42:00,38.5,36.3,30.04,SSE,164,5.2,6.6,92,0.00,,OVC130,0.00,VWS V14.01,2013-02-10 12:42:00,
2013-02-10 07:43:00,38.5,36.3,30.04,SSE,164,0.0,6.6,92,0.00,,OVC130,0.00,VWS V14.01,2013-02-10 12:43:00,
2013-02-10 07:44:00,38.5,36.3,30.04,SSE,163,4.4,5.6,92,0.00,,OVC130,0.00,VWS V14.01,2013-02-10 12:44:00,
2013-02-10 07:45:00,38.5,36.8,30.04,South,176,4.4,11.3,94,0.00,,OVC130,0.00,VWS V14.01,2013-02-10 12:45:00,
2013-02-10 07:46:00,38.7,37.0,30.04,South,185,5.2,7.5,94,0.00,,OVC130,0.00,VWS V14.01,2013-02-10 12:46:00,
2013-02-10 07:47:00,38.7,37.4,30.04,SSE,165,0.0,4.7,95,0.00,,OVC130,0.00,VWS V14.01,2013-02-10 12:47:00,
2013-02-10 07:48:00,38.7,37.4,30.04,SSE,165,0.0,4.7,95,0.00,,OVC130,0.00,VWS V14.01,2013-02-10 12:48:00,
2013-02-10 07:49:00,38.7,37.4,30.04,SSE,165,0.0,6.6,95,0.00,,OVC130,0.00,VWS V14.01,2013-02-10 12:49:00,
2013-02-10 07:50:00,38.8,38.0,30.04,South,176,6.6,8.5,97,0.00,,OVC130,0.00,VWS V14.01,2013-02-10 12:50:00,
2013-02-10 07:51:00,38.8,38.5,30.04,SSE,168,0.0,12.2,99,0.00,,OVC130,0.00,VWS V14.01,2013-02-10 12:51:00,
2013-02-10 07:52:00,38.8,38.5,30.04,SSW,194,3.7,6.6,99,0.00,,OVC130,0.00,VWS V14.01,2013-02-10 12:52:00,
2013-02-10 07:53:00,38.8,38.5,30.04,South,189,4.4,6.6,99,0.00,,OVC130,0.00,VWS V14.01,2013-02-10 12:53:00,
2013-02-10 07:54:00,39.0,38.7,30.04,SSE,156,0.0,8.5,99,0.00,,OVC130,0.00,VWS V14.01,2013-02-10 12:54:00,
2013-02-10 07:55:00,39.0,38.7,30.04,SSE,162,0.0,4.7,99,0.00,,OVC130,0.00,VWS V14.01,2013-02-10 12:55:00,
2013-02-10 07:56:00,39.0,38.7,30.04,SSE,162,6.6,8.5,99,0.00,,OVC130,0.00,VWS V14.01,2013-02-10 12:56:00,
2013-02-10 07:57:00,39.2,38.8,30.04,South,183,4.4,11.3,99,0.00,,OVC130,0.00,VWS V14.01,2013-02-10 12:57:00,
2013-02-10 07:58:00,39.2,38.8,30.04,South,183,4.4,11.3,99,0.00,,OVC130,0.00,VWS V14.01,2013-02-10 12:58:00,
2013-02-10 07:59:00,39.2,38.8,30.04,South,176,9.6,12.2,99,0.00,,OVC130,0.00,VWS V14.01,2013-02-10 12:59:00,
2013-02-10 08:00:00,39.2,39.2,30.04,South,179,6.6,12.2,100,0.00,,OVC130,0.00,VWS V14.01,2013-02-10 13:00:00,
2013-02-10 08:01:00,39.2,39.2,30.04,South,176,0.0,11.3,100,0.00,,OVC130,0.00,VWS V14.01,2013-02-10 13:01:00,
2013-02-10 08:02:00,39.2,39.2,30.04,South,171,5.9,7.5,100,0.00,,OVC130,0.00,VWS V14.01,2013-02-10 13:02:00,
2013-02-10 08:03:00,39.2,39.2,30.04,South,171,5.9,7.5,100,0.00,,OVC130,0.00,VWS V14.01,2013-02-10 13:03:00,
2013-02-10 08:04:00,39.4,39.4,30.04,South,180,0.0,8.5,100,0.00,,OVC130,0.00,VWS V14.01,2013-02-10 13:04:00,
2013-02-10 08:05:00,39.4,39.4,30.04,South,180,0.0,0.0,100,0.00,,OVC130,0.00,VWS V14.01,2013-02-10 13:05:00,
2013-02-10 08:06:00,39.4,39.4,30.04,SW,219,5.2,6.6,100,0.00,,OVC130,0.00,VWS V14.01,2013-02-10 13:06:00,
2013-02-10 08:07:00,39.4,39.4,30.04,SE,133,0.0,7.5,100,0.00,,OVC130,0.00,VWS V14.01,2013-02-10 13:07:00,
2013-02-10 08:08:00,39.4,39.4,30.04,SE,133,0.0,7.5,100,0.00,,OVC130,0.00,VWS V14.01,2013-02-10 13:08:00,
2013-02-10 08:09:00,39.4,39.4,30.04,SE,133,0.0,0.0,100,0.00,,OVC130,0.00,VWS V14.01,2013-02-10 13:09:00,
2013-02-10 08:10:00,39.4,39.4,30.04,SE,137,4.4,7.5,100,0.00,,OVC130,0.00,VWS V14.01,2013-02-10 13:10:00,
2013-02-10 08:11:00,39.4,39.4,30.04,SSE,159,0.0,5.6,100,0.00,,OVC130,0.00,VWS V14.01,2013-02-10 13:11:00,
2013-02-10 08:12:00,39.4,39.4,30.04,SE,132,5.9,7.5,100,0.00,,OVC130,0.00,VWS V14.01,2013-02-10 13:12:00,
2013-02-10 08:13:00,39.4,39.4,30.04,SE,132,5.9,7.5,100,0.00,,OVC130,0.00,VWS V14.01,2013-02-10 13:13:00,
2013-02-10 08:14:00,39.4,39.4,30.04,South,186,0.0,7.5,100,0.00,,OVC130,0.00,VWS V14.01,2013-02-10 13:14:00,
2013-02-10 08:15:00,39.4,39.4,30.04,South,171,0.0,6.6,100,0.00,,OVC130,0.00,VWS V14.01,2013-02-10 13:15:00,
2013-02-10 08:16:00,39.4,39.4,30.04,South,172,0.0,0.0,100,0.00,,OVC130,0.00,VWS V14.01,2013-02-10 13:16:00,
2013-02-10 08:32:00,39.6,39.6,30.04,SSE,157,0.0,0.0,100,0.00,,OVC130,0.00,VWS V14.01,2013-02-10 13:32:00,
2013-02-10 08:33:00,39.6,39.6,30.04,SSE,157,0.0,0.0,100,0.00,,-RA,0.00,VWS V14.01,2013-02-10 13:33:00,
2013-02-10 08:34:00,39.6,39.6,30.04,SSE,157,0.0,0.0,100,0.00,,-RA,0.00,VWS V14.01,2013-02-10 13:34:00,
2013-02-10 08:35:00,39.6,39.6,30.04,SSE,157,0.0,0.0,100,0.00,,-RA,0.00,VWS V14.01,2013-02-10 13:35:00,
2013-02-10 08:36:00,39.6,39.6,30.04,SSE,157,0.0,0.0,100,0.00,,-RA,0.00,VWS V14.01,2013-02-10 13:36:00,
2013-02-10 08:37:00,39.6,39.6,30.04,SSE,157,0.0,0.0,100,0.00,,OVC085,0.00,VWS V14.01,2013-02-10 13:37:00,
2013-02-10 08:38:00,39.6,39.6,30.04,SSE,157,0.0,0.0,100,0.00,,-RA,0.00,VWS V14.01,2013-02-10 13:38:00,
2013-02-10 08:39:00,39.6,39.6,30.04,SSE,157,0.0,0.0,100,0.00,,-RA,0.00,VWS V14.01,2013-02-10 13:39:00,
2013-02-10 08:40:00,39.6,39.6,30.04,SSE,159,0.0,0.0,100,0.00,,-RA,0.00,VWS V14.01,2013-02-10 13:40:00,
2013-02-10 08:41:00,39.6,39.6,30.04,South,169,4.4,5.6,100,0.00,,-RA,0.00,VWS V14.01,2013-02-10 13:41:00,
2013-02-10 08:42:00,39.6,39.6,30.04,South,174,5.2,6.6,100,0.00,,-RA,0.00,VWS V14.01,2013-02-10 13:42:00,
2013-02-10 08:43:00,39.7,39.7,30.04,SSE,166,0.0,0.0,100,0.00,,OVC085,0.00,VWS V14.01,2013-02-10 13:43:00,
2013-02-10 08:44:00,39.7,39.7,30.04,SSE,166,0.0,0.0,100,0.00,,-RA,0.00,VWS V14.01,2013-02-10 13:44:00,
2013-02-10 08:45:00,39.7,39.7,30.04,South,184,0.0,0.0,100,0.00,,-RA,0.00,VWS V14.01,2013-02-10 13:45:00,
2013-02-10 08:46:00,39.7,39.7,30.04,South,184,0.0,0.0,100,0.00,,-RA,0.00,VWS V14.01,2013-02-10 13:46:00,
2013-02-10 08:47:00,39.7,39.7,30.04,South,184,0.0,0.0,100,0.00,,-RA,0.00,VWS V14.01,2013-02-10 13:47:00,
2013-02-10 08:48:00,39.7,39.7,30.04,South,174,5.2,8.5,100,0.00,,OVC085,0.00,VWS V14.01,2013-02-10 13:48:00,
2013-02-10 08:49:00,39.7,39.7,30.04,South,174,5.2,8.5,100,0.00,,-RA,0.00,VWS V14.01,2013-02-10 13:49:00,
2013-02-10 08:50:00,39.7,39.7,30.04,SSE,168,0.0,6.6,100,0.00,,-RA,0.00,VWS V14.01,2013-02-10 13:50:00,
2013-02-10 08:51:00,39.9,39.9,30.04,SSW,201,0.0,6.6,100,0.00,,-RA,0.00,VWS V14.01,2013-02-10 13:51:00,
2013-02-10 08:52:00,39.9,39.9,30.04,SSW,200,0.0,5.6,100,0.00,,-RA,0.00,VWS V14.01,2013-02-10 13:52:00,
2013-02-10 08:53:00,39.9,39.9,30.04,SSW,199,0.0,0.0,100,0.00,,OVC085,0.00,VWS V14.01,2013-02-10 13:53:00,
2013-02-10 08:54:00,39.9,39.9,30.04,SSW,199,0.0,0.0,100,0.00,,-RA,0.00,VWS V14.01,2013-02-10 13:54:00,
2013-02-10 08:55:00,39.9,39.9,30.04,SSW,199,3.7,5.6,100,0.00,,-RA,0.00,VWS V14.01,2013-02-10 13:55:00,
2013-02-10 08:56:00,39.9,39.9,30.04,SSW,199,0.0,4.7,100,0.00,,-RA,0.00,VWS V14.01,2013-02-10 13:56:00,
2013-02-10 08:57:00,39.9,39.9,30.04,South,171,6.6,8.5,100,0.00,,-RA,0.00,VWS V14.01,2013-02-10 13:57:00,
2013-02-10 08:58:00,40.1,40.1,30.04,SE,143,0.0,7.5,100,0.00,,OVC085,0.00,VWS V14.01,2013-02-10 13:58:00,
2013-02-10 08:59:00,40.1,40.1,30.04,SE,143,0.0,7.5,100,0.00,,-RA,0.00,VWS V14.01,2013-02-10 13:59:00,
2013-02-10 09:00:00,40.1,40.1,30.04,SSE,165,5.2,6.6,100,0.00,,-RA,0.00,VWS V14.01,2013-02-10 14:00:00,
2013-02-10 09:01:00,40.1,40.1,30.04,South,176,4.4,6.6,100,0.00,,-RA,0.00,VWS V14.01,2013-02-10 14:01:00,
2013-02-10 09:02:00,40.3,40.3,30.04,South,176,0.0,5.6,100,0.00,,-RA,0.00,VWS V14.01,2013-02-10 14:02:00,
2013-02-10 09:03:00,40.3,40.3,30.04,SSE,153,6.6,8.5,100,0.00,,OVC085,0.00,VWS V14.01,2013-02-10 14:03:00,
2013-02-10 09:04:00,40.3,40.3,30.04,SSW,198,5.9,7.5,100,0.00,,-RA,0.00,VWS V14.01,2013-02-10 14:04:00,
2013-02-10 09:05:00,40.3,40.3,30.04,SSE,153,0.0,8.5,100,0.00,,-RA,0.00,VWS V14.01,2013-02-10 14:05:00,
2013-02-10 09:06:00,40.3,40.3,30.04,South,170,5.9,7.5,100,0.00,,-RA,0.00,VWS V14.01,2013-02-10 14:06:00,
2013-02-10 09:07:00,40.3,40.3,30.04,South,173,4.4,7.5,100,0.00,,-RA,0.00,VWS V14.01,2013-02-10 14:07:00,
2013-02-10 09:08:00,40.5,40.5,30.04,SSE,167,3.7,8.5,100,0.00,,OVC085,0.00,VWS V14.01,2013-02-10 14:08:00,
2013-02-10 09:09:00,40.5,40.5,30.04,SSE,167,6.6,8.5,100,0.00,,-RA,0.00,VWS V14.01,2013-02-10 14:09:00,
2013-02-10 09:10:00,40.5,40.5,30.04,South,182,5.2,8.5,100,0.00,,-RA,0.00,VWS V14.01,2013-02-10 14:10:00,
2013-02-10 09:11:00,40.5,40.5,30.04,South,182,0.0,6.6,100,0.00,,-RA,0.00,VWS V14.01,2013-02-10 14:11:00,
2013-02-10 09:12:00,40.5,40.5,30.04,South,180,8.9,11.3,100,0.00,,-RA,0.00,VWS V14.01,2013-02-10 14:12:00,
2013-02-10 09:13:00,40.6,40.6,30.04,South,183,5.9,10.3,100,0.00,,OVC085,0.00,VWS V14.01,2013-02-10 14:13:00,
2013-02-10 09:14:00,40.6,40.6,30.04,SSW,206,8.1,10.3,100,0.00,,-RA,0.00,VWS V14.01,2013-02-10 14:14:00,
2013-02-10 09:15:00,40.6,40.6,30.04,South,183,4.4,10.3,100,0.00,,-RA,0.00,VWS V14.01,2013-02-10 14:15:00,
2013-02-10 09:16:00,40.6,40.6,30.04,South,179,4.4,7.5,100,0.00,,-RA,0.00,VWS V14.01,2013-02-10 14:16:00,
2013-02-10 09:17:00,40.6,40.6,30.04,South,179,0.0,5.6,100,0.00,,-RA,0.00,VWS V14.01,2013-02-10 14:17:00,
2013-02-10 09:18:00,40.6,40.6,30.04,South,179,0.0,0.0,100,0.00,,-RA,0.00,VWS V14.01,2013-02-10 14:18:00,
2013-02-10 09:19:00,40.8,40.8,30.04,South,187,4.4,10.3,100,0.00,,OVC085,0.00,VWS V14.01,2013-02-10 14:19:00,
2013-02-10 09:20:00,40.8,40.8,30.04,South,186,5.2,10.3,100,0.00,,-RA,0.00,VWS V14.01,2013-02-10 14:20:00,
2013-02-10 09:21:00,40.8,40.8,30.04,South,181,5.2,7.5,100,0.00,,-RA,0.00,VWS V14.01,2013-02-10 14:21:00,
2013-02-10 09:22:00,40.8,40.8,30.04,SSW,199,0.0,6.6,100,0.00,,-RA,0.00,VWS V14.01,2013-02-10 14:22:00,
2013-02-10 09:23:00,40.8,40.8,30.04,South,185,0.0,6.6,100,0.00,,-RA,0.00,VWS V14.01,2013-02-10 14:23:00,
2013-02-10 09:24:00,41.0,41.0,30.04,South,190,4.4,6.6,100,0.00,,OVC085,0.00,VWS V14.01,2013-02-10 14:24:00,
2013-02-10 09:25:00,41.0,41.0,30.04,South,190,4.4,6.6,100,0.00,,-RA,0.00,VWS V14.01,2013-02-10 14:25:00,
2013-02-10 09:26:00,41.0,41.0,30.04,South,182,0.0,8.5,100,0.00,,-RA,0.00,VWS V14.01,2013-02-10 14:26:00,
2013-02-10 09:27:00,41.0,41.0,30.04,South,182,0.0,0.0,100,0.00,,-RA,0.00,VWS V14.01,2013-02-10 14:27:00,
2013-02-10 09:28:00,41.0,41.0,30.04,South,182,0.0,0.0,100,0.00,,-RA,0.00,VWS V14.01,2013-02-10 14:28:00,
2013-02-10 09:29:00,41.0,41.0,30.04,South,182,0.0,0.0,100,0.00,,OVC085,0.00,VWS V14.01,2013-02-10 14:29:00,
2013-02-10 09:30:00,41.0,41.0,30.04,South,182,5.2,6.6,100,0.00,,-RA,0.00,VWS V14.01,2013-02-10 14:30:00,
2013-02-10 09:31:00,41.2,41.2,30.04,South,182,0.0,6.6,100,0.00,,-RA,0.00,VWS V14.01,2013-02-10 14:31:00,
2013-02-10 09:32:00,41.2,41.2,30.04,South,182,0.0,5.6,100,0.00,,-RA,0.00,VWS V14.01,2013-02-10 14:32:00,
2013-02-10 09:33:00,41.2,41.2,30.04,South,182,0.0,0.0,100,0.00,,-RA,0.00,VWS V14.01,2013-02-10 14:33:00,
2013-02-10 09:34:00,41.4,41.4,30.04,South,182,0.0,0.0,100,0.00,,OVC085,0.00,VWS V14.01,2013-02-10 14:34:00,
2013-02-10 09:35:00,41.4,41.4,30.04,South,182,0.0,0.0,100,0.00,,-RA,0.00,VWS V14.01,2013-02-10 14:35:00,
2013-02-10 09:36:00,41.4,41.4,30.04,SSW,193,5.9,7.5,100,0.00,,-RA,0.00,VWS V14.01,2013-02-10 14:36:00,
2013-02-10 09:37:00,41.5,41.5,30.04,South,172,5.9,7.5,100,0.00,,-RA,0.00,VWS V14.01,2013-02-10 14:37:00,
2013-02-10 09:38:00,41.5,41.5,30.04,SSW,207,8.9,11.3,100,0.00,,-RA,0.00,VWS V14.01,2013-02-10 14:38:00,
2013-02-10 09:39:00,41.7,41.7,30.04,SSE,151,5.2,6.6,100,0.00,,OVC060,0.00,VWS V14.01,2013-02-10 14:39:00,
2013-02-10 09:40:00,41.7,41.7,30.04,SSE,151,5.2,6.6,100,0.00,,-RA,0.00,VWS V14.01,2013-02-10 14:40:00,
2013-02-10 09:41:00,41.7,41.7,30.04,South,181,4.4,8.5,100,0.00,,-RA,0.00,VWS V14.01,2013-02-10 14:41:00,
2013-02-10 09:42:00,41.9,41.9,30.04,South,178,3.7,6.6,100,0.00,,-RA,0.00,VWS V14.01,2013-02-10 14:42:00,
2013-02-10 09:43:00,41.9,41.9,30.04,South,178,0.0,4.7,100,0.00,,-RA,0.00,VWS V14.01,2013-02-10 14:43:00,
2013-02-10 09:44:00,42.1,42.1,30.04,SE,129,0.0,5.6,100,0.00,,OVC060,0.00,VWS V14.01,2013-02-10 14:44:00,
2013-02-10 09:45:00,42.1,42.1,30.04,SE,129,0.0,5.6,100,0.00,,-RA,0.00,VWS V14.01,2013-02-10 14:45:00,
2013-02-10 09:46:00,42.1,42.1,30.04,SSE,147,4.4,8.5,100,0.00,,-RA,0.00,VWS V14.01,2013-02-10 14:46:00,
2013-02-10 09:47:00,42.3,42.3,30.04,SE,144,0.0,5.6,100,0.00,,-RA,0.00,VWS V14.01,2013-02-10 14:47:00,
2013-02-10 09:48:00,42.3,42.3,30.04,ESE,120,6.6,8.5,100,0.00,,-RA,0.00,VWS V14.01,2013-02-10 14:48:00,
2013-02-10 09:49:00,42.4,42.4,30.04,SE,137,0.0,0.0,100,0.00,,OVC060,0.00,VWS V14.01,2013-02-10 14:49:00,
2013-02-10 09:50:00,42.4,42.4,30.04,SE,137,0.0,7.5,100,0.00,,-RA,0.00,VWS V14.01,2013-02-10 14:50:00,
2013-02-10 09:51:00,42.6,42.6,30.04,SE,138,4.4,5.6,100,0.00,,-RA,0.00,VWS V14.01,2013-02-10 14:51:00,
2013-02-10 09:52:00,42.8,42.8,30.04,South,184,4.4,12.2,100,0.00,,-RA,0.00,VWS V14.01,2013-02-10 14:52:00,
2013-02-10 09:53:00,42.8,42.8,30.04,SSE,155,5.2,8.5,100,0.00,,-RA,0.00,VWS V14.01,2013-02-10 14:53:00,
2013-02-10 09:54:00,43.0,43.0,30.04,SSE,153,0.0,7.5,100,0.00,,OVC060,0.00,VWS V14.01,2013-02-10 14:54:00,
2013-02-10 09:55:00,43.0,43.0,30.04,SSE,153,0.0,7.5,100,0.00,,-RA,0.00,VWS V14.01,2013-02-10 14:55:00,
2013-02-10 09:56:00,43.0,43.0,30.01,SE,133,6.6,8.5,100,0.00,,-RA,0.00,VWS V14.01,2013-02-10 14:56:00,
2013-02-10 09:57:00,43.2,43.2,30.01,SSE,156,0.0,8.5,100,0.00,,-RA,0.00,VWS V14.01,2013-02-10 14:57:00,
2013-02-10 09:58:00,43.2,43.2,30.01,SSE,164,4.4,8.5,100,0.00,,-RA,0.00,VWS V14.01,2013-02-10 14:58:00,
2013-02-10 09:59:00,43.5,43.5,30.01,SSE,160,0.0,4.7,100,0.00,,OVC060,0.00,VWS V14.01,2013-02-10 14:59:00,
2013-02-10 10:00:00,43.5,43.5,30.01,SSE,160,3.7,8.5,100,0.00,,-RA,0.00,VWS V14.01,2013-02-10 15:00:00,
2013-02-10 10:01:00,43.5,43.5,30.01,SSE,159,0.0,4.7,100,0.00,,-RA,0.00,VWS V14.01,2013-02-10 15:01:00,
2013-02-10 10:02:00,43.5,43.5,30.01,SE,140,9.6,12.2,100,0.00,,-RA,0.00,VWS V14.01,2013-02-10 15:02:00,
2013-02-10 10:03:00,43.7,43.7,30.01,ESE,118,4.4,12.2,100,0.00,,-RA,0.00,VWS V14.01,2013-02-10 15:03:00,
2013-02-10 10:04:00,43.9,43.9,30.01,SSE,160,0.0,0.0,100,0.00,,OVC060,0.00,VWS V14.01,2013-02-10 15:04:00,
2013-02-10 10:05:00,43.9,43.9,30.01,SSE,160,0.0,6.6,100,0.00,,-RA,0.00,VWS V14.01,2013-02-10 15:05:00,
2013-02-10 10:06:00,44.1,44.1,30.01,SSE,160,5.2,6.6,100,0.00,,-RA,0.00,VWS V14.01,2013-02-10 15:06:00,
2013-02-10 10:07:00,44.1,44.1,30.01,SE,135,3.7,6.6,100,0.00,,-RA,0.00,VWS V14.01,2013-02-10 15:07:00,
2013-02-10 10:08:00,44.1,44.1,30.01,South,187,9.6,16.0,100,0.00,,-RA,0.00,VWS V14.01,2013-02-10 15:08:00,
2013-02-10 10:09:00,44.2,44.2,30.01,South,174,4.4,8.5,100,0.00,,OVC060,0.00,VWS V14.01,2013-02-10 15:09:00,
2013-02-10 10:10:00,44.2,44.2,30.01,SE,135,6.6,8.5,100,0.00,,-RA,0.00,VWS V14.01,2013-02-10 15:10:00,
2013-02-10 10:11:00,44.2,44.2,30.01,South,178,8.1,10.3,100,0.00,,-RA,0.00,VWS V14.01,2013-02-10 15:11:00,
2013-02-10 10:12:00,44.4,44.4,30.01,SSE,157,4.4,10.3,100,0.00,,-RA,0.00,VWS V14.01,2013-02-10 15:12:00,
2013-02-10 10:13:00,44.6,44.6,30.01,South,189,8.9,12.2,100,0.00,,-RA,0.00,VWS V14.01,2013-02-10 15:13:00,
2013-02-10 10:14:00,44.8,44.8,30.01,SSE,150,5.9,7.5,100,0.00,,OVC060,0.00,VWS V14.01,2013-02-10 15:14:00,
2013-02-10 10:15:00,44.6,44.6,30.01,SSE,152,5.9,13.2,100,0.00,,-RA,0.00,VWS V14.01,2013-02-10 15:15:00,
2013-02-10 10:16:00,44.8,44.8,30.01,South,191,8.9,11.3,100,0.00,,-RA,0.00,VWS V14.01,2013-02-10 15:16:00,
2013-02-10 10:17:00,44.8,44.8,30.01,South,179,6.6,11.3,100,0.00,,-RA,0.00,VWS V14.01,2013-02-10 15:17:00,
2013-02-10 10:18:00,44.8,44.8,30.01,SSE,163,8.9,16.9,100,0.00,,-RA,0.00,VWS V14.01,2013-02-10 15:18:00,
2013-02-10 10:19:00,44.8,44.8,30.01,SSE,148,4.4,11.3,100,0.00,,-RA,0.00,VWS V14.01,2013-02-10 15:19:00,
2013-02-10 10:20:00,45.0,45.0,30.01,SSW,203,5.9,10.3,100,0.00,,-RA,0.00,VWS V14.01,2013-02-10 15:20:00,
2013-02-10 10:21:00,45.0,45.0,30.01,SSE,156,5.2,14.1,100,0.00,,-RA,0.00,VWS V14.01,2013-02-10 15:21:00,
2013-02-10 10:22:00,45.1,45.1,30.01,South,175,14.4,18.3,100,0.00,,-RA,0.00,VWS V14.01,2013-02-10 15:22:00,
2013-02-10 10:23:00,45.1,45.1,30.01,SSE,162,12.5,18.3,100,0.00,,-RA,0.00,VWS V14.01,2013-02-10 15:23:00,
2013-02-10 10:24:00,45.1,45.1,30.01,South,169,5.2,16.0,100,0.00,,-RA,0.00,VWS V14.01,2013-02-10 15:24:00,
2013-02-10 10:25:00,45.3,45.3,30.01,SSE,167,5.9,10.3,100,0.00,,-RA,0.00,VWS V14.01,2013-02-10 15:25:00,
2013-02-10 10:26:00,45.3,45.3,30.01,SSE,150,8.9,11.3,100,0.00,,-RA,0.00,VWS V14.01,2013-02-10 15:26:00,
2013-02-10 10:27:00,45.3,45.3,29.98,SSE,168,14.4,18.3,100,0.00,,-RA,0.00,VWS V14.01,2013-02-10 15:27:00,
2013-02-10 10:28:00,45.5,45.5,29.98,SSE,150,12.5,18.3,100,0.00,,-RA,0.00,VWS V14.01,2013-02-10 15:28:00,
2013-02-10 10:29:00,45.5,45.1,29.98,South,179,10.3,16.0,99,0.00,,-RA,0.00,VWS V14.01,2013-02-10 15:29:00,
2013-02-10 10:30:00,45.7,45.7,29.98,SSE,152,4.4,13.2,100,0.00,,-RA,0.00,VWS V14.01,2013-02-10 15:30:00,
2013-02-10 10:31:00,45.7,45.7,29.98,ESE,115,5.9,13.2,100,0.00,,-RA,0.00,VWS V14.01,2013-02-10 15:31:00,
2013-02-10 10:32:00,45.9,45.5,29.98,ESE,119,5.9,13.2,99,0.00,,-RA,0.00,VWS V14.01,2013-02-10 15:32:00,
2013-02-10 10:33:00,45.9,45.0,29.98,SSE,155,6.6,16.9,97,0.00,,-RA,0.00,VWS V14.01,2013-02-10 15:33:00,
2013-02-10 10:34:00,45.9,45.0,29.98,SE,129,5.9,11.3,97,0.00,,-RA,0.00,VWS V14.01,2013-02-10 15:34:00,
2013-02-10 10:35:00,46.0,45.2,29.98,SSW,210,6.6,12.2,97,0.00,,-RA,0.00,VWS V14.01,2013-02-10 15:35:00,
2013-02-10 10:36:00,46.0,45.2,29.98,South,187,8.1,10.3,97,0.00,,-RA,0.00,VWS V14.01,2013-02-10 15:36:00,
2013-02-10 10:37:00,46.0,45.2,29.98,SSE,165,5.2,10.3,97,0.00,,-RA,0.00,VWS V14.01,2013-02-10 15:37:00,
2013-02-10 10:38:00,46.2,45.4,29.98,SW,215,5.2,8.5,97,0.00,,-RA,0.00,VWS V14.01,2013-02-10 15:38:00,
2013-02-10 10:39:00,46.2,44.9,29.98,SSE,164,8.9,16.0,95,0.00,,-RA,0.00,VWS V14.01,2013-02-10 15:39:00,
2013-02-10 10:40:00,46.2,44.9,29.98,SSW,210,5.9,13.2,95,0.00,,-RA,0.00,VWS V14.01,2013-02-10 15:40:00,
2013-02-10 10:41:00,46.4,45.1,29.98,SE,137,5.2,13.2,95,0.00,,-RA,0.00,VWS V14.01,2013-02-10 15:41:00,
2013-02-10 10:42:00,46.4,45.1,29.98,SSE,149,8.9,12.2,95,0.00,,-RA,0.00,VWS V14.01,2013-02-10 15:42:00,
2013-02-10 10:43:00,46.6,44.8,29.98,SE,145,10.3,13.2,94,0.00,,-RA,0.00,VWS V14.01,2013-02-10 15:43:00,
2013-02-10 10:44:00,46.6,44.8,29.98,ESE,110,8.1,16.0,94,0.00,,-RA,0.00,VWS V14.01,2013-02-10 15:44:00,
2013-02-10 10:45:00,46.6,44.8,29.98,South,179,9.6,12.2,94,0.00,,-RA,0.00,VWS V14.01,2013-02-10 15:45:00,
2013-02-10 10:46:00,46.6,44.3,29.98,South,180,10.3,13.2,92,0.00,,-RA,0.00,VWS V14.01,2013-02-10 15:46:00,
2013-02-10 10:47:00,46.8,44.5,29.98,SSE,165,11.8,16.0,92,0.00,,-RA,0.00,VWS V14.01,2013-02-10 15:47:00,
2013-02-10 10:48:00,46.8,44.0,29.98,SE,137,15.1,19.3,90,0.00,,-RA,0.00,VWS V14.01,2013-02-10 15:48:00,
2013-02-10 10:49:00,46.8,43.5,29.98,SE,124,8.9,19.3,88,0.00,,-RA,0.00,VWS V14.01,2013-02-10 15:49:00,
2013-02-10 10:50:00,46.8,43.5,29.98,SE,132,10.3,13.2,88,0.00,,-RA,0.00,VWS V14.01,2013-02-10 15:50:00,
2013-02-10 10:51:00,46.8,43.5,29.98,SE,138,8.1,16.0,88,0.00,,-RA,0.00,VWS V14.01,2013-02-10 15:51:00,
2013-02-10 10:52:00,46.8,43.0,29.98,SSE,155,14.4,18.3,87,0.00,,-RA,0.00,VWS V14.01,2013-02-10 15:52:00,
2013-02-10 10:53:00,46.8,43.0,29.98,South,183,5.9,18.3,87,0.00,,-RA,0.00,VWS V14.01,2013-02-10 15:53:00,
2013-02-10 10:54:00,46.8,43.0,29.98,South,175,6.6,12.2,87,0.00,,-RA,0.00,VWS V14.01,2013-02-10 15:54:00,
2013-02-10 10:55:00,46.8,43.0,29.98,SE,135,8.9,16.0,87,0.00,,-RA,0.00,VWS V14.01,2013-02-10 15:55:00,
2013-02-10 10:56:00,46.9,43.2,29.95,SSE,160,5.9,12.2,87,0.00,,-RA,0.00,VWS V14.01,2013-02-10 15:56:00,
2013-02-10 10:57:00,46.9,43.2,29.95,SSE,151,10.3,13.2,87,0.00,,-RA,0.00,VWS V14.01,2013-02-10 15:57:00,
2013-02-10 10:58:00,46.9,43.2,29.95,SSE,152,10.3,17.4,87,0.00,,-RA,0.00,VWS V14.01,2013-02-10 15:58:00,
2013-02-10 10:59:00,46.9,42.7,29.95,SSE,165,12.5,16.9,85,0.00,,-RA,0.00,VWS V14.01,2013-02-10 15:59:00,
2013-02-10 11:00:00,46.9,42.7,29.95,SE,143,11.8,16.0,85,0.00,,-RA,0.00,VWS V14.01,2013-02-10 16:00:00,
2013-02-10 11:01:00,46.9,42.7,29.95,SSE,165,6.6,16.9,85,0.00,,-RA,0.00,VWS V14.01,2013-02-10 16:01:00,
2013-02-10 11:02:00,46.9,42.7,29.95,SE,129,18.1,23.0,85,0.00,,-RA,0.00,VWS V14.01,2013-02-10 16:02:00,
2013-02-10 11:03:00,46.9,42.7,29.95,SE,131,11.8,23.0,85,0.00,,-RA,0.00,VWS V14.01,2013-02-10 16:03:00,
2013-02-10 11:04:00,46.9,42.7,29.95,SE,133,9.6,15.0,85,0.00,,-RA,0.00,VWS V14.01,2013-02-10 16:04:00,
2013-02-10 11:05:00,46.9,42.7,29.95,SSE,163,5.9,12.2,85,0.00,,-RA,0.00,VWS V14.01,2013-02-10 16:05:00,
2013-02-10 11:06:00,47.1,42.3,29.95,SSE,161,16.6,22.1,83,0.00,,-RA,0.00,VWS V14.01,2013-02-10 16:06:00,
2013-02-10 11:07:00,47.1,42.3,29.95,East,97,12.5,21.1,83,0.00,,-RA,0.00,VWS V14.01,2013-02-10 16:07:00,
2013-02-10 11:08:00,47.1,42.3,29.95,East,93,8.1,16.0,83,0.00,,-RA,0.00,VWS V14.01,2013-02-10 16:08:00,
2013-02-10 11:09:00,47.1,42.3,29.95,South,180,14.4,18.3,83,0.00,,-RA,0.00,VWS V14.01,2013-02-10 16:09:00,
2013-02-10 11:10:00,47.1,42.3,29.95,South,175,14.4,19.3,83,0.00,,-RA,0.00,VWS V14.01,2013-02-10 16:10:00,
2013-02-10 11:11:00,47.1,42.3,29.95,SSE,165,8.1,18.3,83,0.00,,-RA,0.00,VWS V14.01,2013-02-10 16:11:00,
2013-02-10 11:12:00,47.1,42.3,29.95,South,184,13.7,17.4,83,0.00,,-RA,0.00,VWS V14.01,2013-02-10 16:12:00,
2013-02-10 11:13:00,47.3,42.5,29.95,South,185,6.6,17.4,83,0.00,,-RA,0.00,VWS V14.01,2013-02-10 16:13:00,
2013-02-10 11:14:00,47.3,42.0,29.95,SE,135,8.9,16.9,82,0.00,,-RA,0.00,VWS V14.01,2013-02-10 16:14:00,
2013-02-10 11:15:00,47.3,42.0,29.95,SSE,149,5.9,11.3,82,0.00,,-RA,0.00,VWS V14.01,2013-02-10 16:15:00,
2013-02-10 11:16:00,47.3,42.0,29.95,South,190,18.1,23.0,82,0.00,,-RA,0.00,VWS V14.01,2013-02-10 16:16:00,
2013-02-10 11:17:00,47.3,42.0,29.95,SSE,167,10.3,23.0,82,0.00,,-RA,0.00,VWS V14.01,2013-02-10 16:17:00,
2013-02-10 11:18:00,47.3,42.0,29.95,SSW,193,12.5,18.3,82,0.00,,-RA,0.00,VWS V14.01,2013-02-10 16:18:00,
2013-02-10 11:19:00,47.3,42.0,29.95,SSE,166,12.5,16.0,82,0.00,,-RA,0.00,VWS V14.01,2013-02-10 16:19:00,
2013-02-10 11:20:00,47.5,42.1,29.95,SSE,157,10.3,18.3,82,0.00,,-RA,0.00,VWS V14.01,2013-02-10 16:20:00,
2013-02-10 11:21:00,47.5,42.1,29.95,South,184,8.9,13.2,82,0.00,,-RA,0.00,VWS V14.01,2013-02-10 16:21:00,
2013-02-10 11:22:00,47.5,42.1,29.95,South,177,10.3,14.1,82,0.00,,-RA,0.00,VWS V14.01,2013-02-10 16:22:00,
2013-02-10 11:23:00,47.5,42.1,29.95,SSE,149,8.9,13.2,82,0.00,,-RA,0.00,VWS V14.01,2013-02-10 16:23:00,
2013-02-10 11:24:00,47.7,42.3,29.95,SSE,147,6.6,13.2,82,0.00,,-RA,0.00,VWS V14.01,2013-02-10 16:24:00,
2013-02-10 11:25:00,47.7,42.3,29.95,SSE,166,12.5,21.1,82,0.00,,-RA,0.00,VWS V14.01,2013-02-10 16:25:00,
2013-02-10 11:26:00,47.7,42.3,29.95,SSW,196,12.5,16.0,82,0.00,,-RA,0.00,VWS V14.01,2013-02-10 16:26:00,
2013-02-10 11:27:00,47.7,42.3,29.95,South,175,10.3,16.0,82,0.00,,-RA,0.00,VWS V14.01,2013-02-10 16:27:00,
2013-02-10 11:28:00,47.7,42.3,29.95,South,181,13.3,16.9,82,0.00,,-RA,0.00,VWS V14.01,2013-02-10 16:28:00,
2013-02-10 11:29:00,47.8,42.5,29.95,SSE,161,10.3,16.9,82,0.00,,-RA,0.00,VWS V14.01,2013-02-10 16:29:00,
2013-02-10 11:30:00,47.8,42.5,29.95,SSE,156,0.0,13.2,82,0.00,,-RA,0.00,VWS V14.01,2013-02-10 16:30:00,
2013-02-10 11:31:00,47.8,42.0,29.95,SSE,168,16.6,21.1,80,0.00,,-RA,0.00,VWS V14.01,2013-02-10 16:31:00,
2013-02-10 11:32:00,47.8,42.0,29.95,SE,142,9.6,21.1,80,0.00,,-RA,0.00,VWS V14.01,2013-02-10 16:32:00,
2013-02-10 11:33:00,48.0,42.1,29.95,SE,137,11.1,14.1,80,0.00,,-RA,0.00,VWS V14.01,2013-02-10 16:33:00,
2013-02-10 11:34:00,48.0,42.1,29.95,SSE,167,6.6,14.1,80,0.00,,-RA,0.00,VWS V14.01,2013-02-10 16:34:00,
2013-02-10 11:35:00,48.0,42.1,29.95,SSE,166,5.9,13.2,80,0.00,,-RA,0.00,VWS V14.01,2013-02-10 16:35:00,
2013-02-10 11:36:00,48.0,42.1,29.95,South,180,5.9,7.5,80,0.00,,-RA,0.00,VWS V14.01,2013-02-10 16:36:00,
2013-02-10 11:37:00,48.2,42.3,29.95,ENE,76,0.0,7.5,80,0.00,,-RA,0.00,VWS V14.01,2013-02-10 16:37:00,
2013-02-10 11:38:00,48.2,42.3,29.95,SE,127,8.9,11.3,80,0.00,,-RA,0.00,VWS V14.01,2013-02-10 16:38:00,
2013-02-10 11:39:00,48.2,41.7,29.95,South,183,4.4,12.2,78,0.00,,-RA,0.00,VWS V14.01,2013-02-10 16:39:00,
2013-02-10 11:40:00,48.2,41.7,29.95,South,184,8.1,18.3,78,0.00,,-RA,0.00,VWS V14.01,2013-02-10 16:40:00,
2013-02-10 11:41:00,48.4,41.9,29.95,SE,140,7.4,16.0,78,0.00,,-RA,0.00,VWS V14.01,2013-02-10 16:41:00,
2013-02-10 11:42:00,48.4,42.5,29.95,SE,140,5.9,9.4,80,0.00,,-RA,0.00,VWS V14.01,2013-02-10 16:42:00,
2013-02-10 11:43:00,48.4,41.9,29.95,South,181,18.1,23.0,78,0.00,,-RA,0.00,VWS V14.01,2013-02-10 16:43:00,
2013-02-10 11:44:00,48.6,41.5,29.95,SSE,152,9.6,23.0,76,0.00,,-RA,0.00,VWS V14.01,2013-02-10 16:44:00,
2013-02-10 11:45:00,48.6,41.5,29.95,South,177,4.4,12.2,76,0.00,,-RA,0.00,VWS V14.01,2013-02-10 16:45:00,
2013-02-10 11:46:00,48.6,41.5,29.95,South,178,8.9,12.2,76,0.00,,-RA,0.00,VWS V14.01,2013-02-10 16:46:00,
2013-02-10 11:47:00,48.7,41.7,29.95,SSW,206,8.9,12.2,76,0.00,,-RA,0.00,VWS V14.01,2013-02-10 16:47:00,
2013-02-10 11:48:00,48.7,41.1,29.95,SE,143,5.2,22.1,75,0.00,,-RA,0.00,VWS V14.01,2013-02-10 16:48:00,
2013-02-10 11:49:00,48.7,41.7,29.95,SSE,149,8.9,11.3,76,0.00,,-RA,0.00,VWS V14.01,2013-02-10 16:49:00,
2013-02-10 11:50:00,48.7,41.1,29.95,SE,144,8.9,11.3,75,0.00,,-RA,0.00,VWS V14.01,2013-02-10 16:50:00,
2013-02-10 11:51:00,48.7,41.1,29.95,South,177,6.6,11.3,75,0.00,,-RA,0.00,VWS V14.01,2013-02-10 16:51:00,
2013-02-10 11:52:00,48.9,41.9,29.95,SSW,205,8.9,16.0,76,0.00,,-RA,0.00,VWS V14.01,2013-02-10 16:52:00,
2013-02-10 11:53:00,48.9,41.3,29.95,SE,128,8.1,18.3,75,0.00,,-RA,0.00,VWS V14.01,2013-02-10 16:53:00,
2013-02-10 11:54:00,48.9,41.9,29.95,South,174,13.7,17.4,76,0.00,,-RA,0.00,VWS V14.01,2013-02-10 16:54:00,
2013-02-10 11:55:00,48.9,41.3,29.95,SE,145,12.5,17.4,75,0.00,,-RA,0.00,VWS V14.01,2013-02-10 16:55:00,
2013-02-10 11:56:00,49.1,41.5,29.95,SE,142,10.3,16.0,75,0.00,,-RA,0.00,VWS V14.01,2013-02-10 16:56:00,
2013-02-10 11:57:00,49.1,41.5,29.95,South,171,10.3,13.2,75,0.00,,-RA,0.00,VWS V14.01,2013-02-10 16:57:00,
2013-02-10 11:58:00,49.1,41.5,29.95,South,179,5.2,13.2,75,0.00,,-RA,0.00,VWS V14.01,2013-02-10 16:58:00,
2013-02-10 11:59:00,49.1,41.5,29.95,SSW,193,9.6,16.0,75,0.00,,-RA,0.00,VWS V14.01,2013-02-10 16:59:00,
2013-02-10 12:00:00,49.1,41.5,29.95,South,183,10.3,13.2,75,0.00,,-RA,0.00,VWS V14.01,2013-02-10 17:00:00,
2013-02-10 12:01:00,49.3,41.6,29.95,ESE,103,4.4,13.2,75,0.00,,-RA,0.00,VWS V14.01,2013-02-10 17:01:00,
2013-02-10 12:02:00,49.3,41.6,29.95,SSW,192,5.2,7.5,75,0.00,,-RA,0.00,VWS V14.01,2013-02-10 17:02:00,
2013-02-10 12:03:00,49.3,41.6,29.95,SE,129,3.7,10.3,75,0.00,,-RA,0.00,VWS V14.01,2013-02-10 17:03:00,
2013-02-10 12:04:00,49.3,41.6,29.95,SSE,159,5.9,7.5,75,0.00,,-RA,0.00,VWS V14.01,2013-02-10 17:04:00,
2013-02-10 12:05:00,49.3,41.6,29.95,SE,138,8.9,13.2,75,0.00,,-RA,0.00,VWS V14.01,2013-02-10 17:05:00,
2013-02-10 12:06:00,49.5,41.8,29.95,SSE,159,4.4,11.3,75,0.00,,-RA,0.00,VWS V14.01,2013-02-10 17:06:00,
2013-02-10 12:07:00,49.5,41.8,29.95,South,188,5.9,8.5,75,0.00,,-RA,0.00,VWS V14.01,2013-02-10 17:07:00,
2013-02-10 12:08:00,49.5,41.8,29.95,SE,130,5.2,13.2,75,0.00,,-RA,0.00,VWS V14.01,2013-02-10 17:08:00,
2013-02-10 12:09:00,49.5,41.8,29.95,South,185,4.4,17.4,75,0.00,,-RA,0.00,VWS V14.01,2013-02-10 17:09:00,
2013-02-10 12:10:00,49.5,41.8,29.95,South,172,4.4,7.5,75,0.00,,-RA,0.00,VWS V14.01,2013-02-10 17:10:00,
2013-02-10 12:11:00,49.5,41.2,29.92,South,178,14.4,18.3,73,0.00,,-RA,0.00,VWS V14.01,2013-02-10 17:11:00,
2013-02-10 12:12:00,49.5,41.2,29.92,SE,141,8.1,18.3,73,0.00,,-RA,0.00,VWS V14.01,2013-02-10 17:12:00,
2013-02-10 12:13:00,49.6,41.4,29.92,SSE,168,6.6,11.3,73,0.00,,-RA,0.00,VWS V14.01,2013-02-10 17:13:00,
2013-02-10 12:14:00,49.6,41.4,29.92,SSE,152,10.3,13.2,73,0.00,,-RA,0.00,VWS V14.01,2013-02-10 17:14:00,
2013-02-10 12:15:00,49.6,41.4,29.92,SE,146,11.8,15.0,73,0.00,,-RA,0.00,VWS V14.01,2013-02-10 17:15:00,
2013-02-10 12:16:00,49.6,41.4,29.92,SE,134,6.6,18.3,73,0.00,,-RA,0.00,VWS V14.01,2013-02-10 17:16:00,
2013-02-10 12:17:00,49.6,41.4,29.92,South,170,5.9,13.2,73,0.00,,-RA,0.00,VWS V14.01,2013-02-10 17:17:00,
2013-02-10 12:18:00,49.6,41.4,29.92,SSE,162,6.6,11.3,73,0.00,,-RA,0.00,VWS V14.01,2013-02-10 17:18:00,
2013-02-10 12:19:00,49.6,41.4,29.92,SSE,162,6.6,12.2,73,0.00,,-RA,0.00,VWS V14.01,2013-02-10 17:19:00,
2013-02-10 12:20:00,49.6,41.4,29.92,SE,124,5.9,8.5,73,0.00,,-RA,0.00,VWS V14.01,2013-02-10 17:20:00,
2013-02-10 12:21:00,49.6,42.0,29.92,SE,146,6.6,11.3,75,0.00,,-RA,0.00,VWS V14.01,2013-02-10 17:21:00,
2013-02-10 12:22:00,49.6,41.4,29.92,SE,134,5.2,8.5,73,0.00,,-RA,0.00,VWS V14.01,2013-02-10 17:22:00,
2013-02-10 12:23:00,49.6,41.4,29.92,SSE,163,9.6,12.2,73,0.00,,-RA,0.00,VWS V14.01,2013-02-10 17:23:00,
2013-02-10 12:24:00,49.6,41.4,29.92,ESE,115,4.4,12.2,73,0.00,,-RA,0.00,VWS V14.01,2013-02-10 17:24:00,
2013-02-10 12:25:00,49.6,41.4,29.92,SE,146,5.9,11.3,73,0.00,,-RA,0.00,VWS V14.01,2013-02-10 17:25:00,
2013-02-10 12:26:00,49.6,41.4,29.89,SE,142,5.9,12.2,73,0.00,,-RA,0.00,VWS V14.01,2013-02-10 17:26:00,
2013-02-10 12:27:00,49.6,41.4,29.89,ESE,123,6.6,8.5,73,0.00,,-RA,0.00,VWS V14.01,2013-02-10 17:27:00,
2013-02-10 12:28:00,49.6,41.4,29.89,SE,142,8.1,10.3,73,0.00,,-RA,0.00,VWS V14.01,2013-02-10 17:28:00,
2013-02-10 12:29:00,49.6,41.4,29.89,ESE,116,4.4,10.3,73,0.00,,-RA,0.00,VWS V14.01,2013-02-10 17:29:00,
2013-02-10 12:31:00,49.6,41.4,29.89,South,179,13.7,17.4,73,0.00,,-RA,0.00,VWS V14.01,2013-02-10 17:31:00,
2013-02-10 12:32:00,49.6,41.4,29.89,South,178,9.6,17.4,73,0.00,,-RA,0.00,VWS V14.01,2013-02-10 17:32:00,
2013-02-10 12:33:00,49.8,41.6,29.89,ESE,110,6.6,12.2,73,0.00,,-RA,0.00,VWS V14.01,2013-02-10 17:33:00,
2013-02-10 12:34:00,49.8,41.6,29.89,SE,124,4.4,10.3,73,0.00,,-RA,0.00,VWS V14.01,2013-02-10 17:34:00,
2013-02-10 12:35:00,49.8,41.6,29.89,SSE,158,8.9,14.1,73,0.00,,-RA,0.00,VWS V14.01,2013-02-10 17:35:00,
2013-02-10 12:36:00,49.8,41.6,29.89,SE,133,4.4,11.3,73,0.00,,-RA,0.00,VWS V14.01,2013-02-10 17:36:00,
2013-02-10 12:37:00,49.8,41.6,29.89,SE,141,0.0,8.5,73,0.00,,-RA,0.00,VWS V14.01,2013-02-10 17:37:00,
2013-02-10 12:38:00,49.8,41.6,29.89,SE,145,8.1,10.3,73,0.00,,-RA,0.00,VWS V14.01,2013-02-10 17:38:00,
2013-02-10 12:39:00,49.8,41.6,29.89,East,87,5.9,10.3,73,0.00,,-RA,0.00,VWS V14.01,2013-02-10 17:39:00,
2013-02-10 12:40:00,49.8,41.6,29.89,SSE,160,4.4,11.3,73,0.00,,-RA,0.00,VWS V14.01,2013-02-10 17:40:00,
2013-02-10 12:41:00,49.8,41.6,29.89,SE,141,8.9,11.3,73,0.00,,-RA,0.00,VWS V14.01,2013-02-10 17:41:00,
2013-02-10 12:42:00,49.8,41.6,29.89,East,97,5.9,11.3,73,0.00,,-RA,0.00,VWS V14.01,2013-02-10 17:42:00,
2013-02-10 12:43:00,49.8,41.6,29.86,ESE,123,8.1,10.3,73,0.00,,-RA,0.00,VWS V14.01,2013-02-10 17:43:00,
2013-02-10 12:44:00,49.8,41.6,29.86,NE,54,15.1,19.3,73,0.00,,-RA,0.00,VWS V14.01,2013-02-10 17:44:00,
2013-02-10 12:45:00,49.8,41.6,29.86,SE,142,10.3,19.3,73,0.00,,-RA,0.00,VWS V14.01,2013-02-10 17:45:00,
2013-02-10 12:46:00,49.8,41.6,29.86,SE,124,8.1,18.3,73,0.00,,-RA,0.00,VWS V14.01,2013-02-10 17:46:00,
2013-02-10 12:47:00,49.8,41.6,29.86,ESE,113,8.1,12.2,73,0.00,,-RA,0.00,VWS V14.01,2013-02-10 17:47:00,
2013-02-10 12:48:00,49.8,41.6,29.86,SSE,168,8.1,16.0,73,0.00,,-RA,0.00,VWS V14.01,2013-02-10 17:48:00,
2013-02-10 12:49:00,49.8,41.6,29.86,SE,145,4.4,10.3,73,0.00,,-RA,0.00,VWS V14.01,2013-02-10 17:49:00,
2013-02-10 12:50:00,49.8,41.6,29.86,SSW,200,6.6,8.5,73,0.00,,-RA,0.00,VWS V14.01,2013-02-10 17:50:00,
2013-02-10 12:51:00,49.8,41.6,29.86,SW,224,0.0,8.5,73,0.00,,-RA,0.00,VWS V14.01,2013-02-10 17:51:00,
2013-02-10 12:52:00,49.8,41.6,29.86,SE,143,6.6,8.5,73,0.00,,-RA,0.00,VWS V14.01,2013-02-10 17:52:00,
2013-02-10 12:53:00,49.8,41.6,29.86,SSE,151,5.2,9.4,73,0.00,,-RA,0.00,VWS V14.01,2013-02-10 17:53:00,
2013-02-10 12:54:00,49.8,41.6,29.86,South,191,11.8,15.0,73,0.00,,-RA,0.00,VWS V14.01,2013-02-10 17:54:00,
2013-02-10 12:55:00,49.8,41.0,29.86,SSW,193,11.1,15.0,71,0.00,,-RA,0.00,VWS V14.01,2013-02-10 17:55:00,
2013-02-10 12:56:00,49.8,41.0,29.86,ESE,112,6.6,16.9,71,0.00,,-RA,0.00,VWS V14.01,2013-02-10 17:56:00,
2013-02-10 12:57:00,49.8,41.0,29.86,SW,222,5.9,8.5,71,0.00,,-RA,0.00,VWS V14.01,2013-02-10 17:57:00,
2013-02-10 12:58:00,49.8,41.0,29.86,South,183,10.3,13.2,71,0.00,,-RA,0.00,VWS V14.01,2013-02-10 17:58:00,
2013-02-10 12:59:00,49.8,41.0,29.86,SSE,156,5.2,13.2,71,0.00,,-RA,0.00,VWS V14.01,2013-02-10 17:59:00,
2013-02-10 13:00:00,49.8,41.0,29.86,SE,127,6.6,10.3,71,0.00,,-RA,0.00,VWS V14.01,2013-02-10 18:00:00,
2013-02-10 13:01:00,49.8,41.0,29.86,South,170,3.7,8.5,71,0.00,,-RA,0.00,VWS V14.01,2013-02-10 18:01:00,
2013-02-10 13:02:00,49.8,41.6,29.86,South,182,5.2,6.6,73,0.00,,-RA,0.00,VWS V14.01,2013-02-10 18:02:00,
2013-02-10 13:03:00,49.8,41.6,29.86,SE,146,6.6,17.4,73,0.00,,-RA,0.00,VWS V14.01,2013-02-10 18:03:00,
2013-02-10 13:04:00,49.8,41.6,29.86,SSW,200,8.9,16.0,73,0.00,,-RA,0.00,VWS V14.01,2013-02-10 18:04:00,
2013-02-10 13:05:00,50.0,41.1,29.86,South,183,8.9,13.2,71,0.00,,-RA,0.00,VWS V14.01,2013-02-10 18:05:00,
2013-02-10 13:06:00,50.0,41.1,29.86,South,190,13.3,16.9,71,0.00,,-RA,0.00,VWS V14.01,2013-02-10 18:06:00,
2013-02-10 13:07:00,50.0,41.1,29.86,South,176,5.9,16.9,71,0.00,,-RA,0.00,VWS V14.01,2013-02-10 18:07:00,
2013-02-10 13:08:00,50.0,41.1,29.86,South,191,6.6,12.2,71,0.00,,-RA,0.00,VWS V14.01,2013-02-10 18:08:00,
2013-02-10 13:09:00,50.0,41.1,29.86,SSE,163,8.9,17.4,71,0.00,,-RA,0.00,VWS V14.01,2013-02-10 18:09:00,
2013-02-10 13:10:00,50.0,41.1,29.86,SSW,197,14.4,18.3,71,0.00,,-RA,0.00,VWS V14.01,2013-02-10 18:10:00,
2013-02-10 13:11:00,50.0,41.1,29.86,SE,146,4.4,18.3,71,0.00,,-RA,0.00,VWS V14.01,2013-02-10 18:11:00,
2013-02-10 13:12:00,50.0,41.1,29.89,South,189,5.9,7.5,71,0.00,,-RA,0.00,VWS V14.01,2013-02-10 18:12:00,
2013-02-10 13:13:00,50.0,41.1,29.89,SSE,147,8.9,17.4,71,0.00,,-RA,0.00,VWS V14.01,2013-02-10 18:13:00,
2013-02-10 13:14:00,50.0,41.1,29.89,South,169,8.1,11.3,71,0.00,,-RA,0.00,VWS V14.01,2013-02-10 18:14:00,
2013-02-10 13:15:00,50.0,41.1,29.89,SSW,195,13.3,16.9,71,0.00,,-RA,0.00,VWS V14.01,2013-02-10 18:15:00,
2013-02-10 13:16:00,50.0,41.1,29.89,SSE,156,8.1,16.9,71,0.00,,-RA,0.00,VWS V14.01,2013-02-10 18:16:00,
2013-02-10 13:17:00,50.0,41.1,29.89,South,171,4.4,10.3,71,0.00,,-RA,0.00,VWS V14.01,2013-02-10 18:17:00,
2013-02-10 13:18:00,50.2,41.3,29.89,SSW,197,6.6,8.5,71,0.00,,-RA,0.00,VWS V14.01,2013-02-10 18:18:00,
2013-02-10 13:19:00,50.2,41.3,29.89,South,180,9.6,12.2,71,0.00,,-RA,0.00,VWS V14.01,2013-02-10 18:19:00,
2013-02-10 13:20:00,50.2,41.3,29.89,South,173,0.0,12.2,71,0.00,,-RA,0.00,VWS V14.01,2013-02-10 18:20:00,
2013-02-10 13:21:00,50.2,41.3,29.89,SE,144,5.2,10.3,71,0.00,,-RA,0.00,VWS V14.01,2013-02-10 18:21:00,
2013-02-10 13:22:00,50.2,41.3,29.89,SSW,197,6.6,8.5,71,0.00,,-RA,0.00,VWS V14.01,2013-02-10 18:22:00,
2013-02-10 13:23:00,50.2,41.3,29.89,SE,126,4.4,8.5,71,0.00,,-RA,0.00,VWS V14.01,2013-02-10 18:23:00,
2013-02-10 13:24:00,50.2,41.3,29.89,SSE,149,3.7,8.5,71,0.00,,-RA,0.00,VWS V14.01,2013-02-10 18:24:00,
2013-02-10 13:25:00,50.2,41.3,29.89,SSE,149,0.0,4.7,71,0.00,,-RA,0.00,VWS V14.01,2013-02-10 18:25:00,
2013-02-10 13:26:00,50.2,41.3,29.89,SSE,157,0.0,0.0,71,0.00,,-RA,0.00,VWS V14.01,2013-02-10 18:26:00,
2013-02-10 13:27:00,50.2,41.3,29.89,South,175,6.6,8.5,71,0.00,,-RA,0.00,VWS V14.01,2013-02-10 18:27:00,
2013-02-10 13:28:00,50.2,41.3,29.89,SSW,200,11.1,14.1,71,0.00,,-RA,0.00,VWS V14.01,2013-02-10 18:28:00,
2013-02-10 13:29:00,50.2,41.3,29.89,SSE,160,4.4,14.1,71,0.00,,-RA,0.00,VWS V14.01,2013-02-10 18:29:00,
2013-02-10 13:30:00,50.4,41.5,29.89,SSE,160,4.4,7.5,71,0.00,,-RA,0.00,VWS V14.01,2013-02-10 18:30:00,
2013-02-10 13:31:00,50.4,41.5,29.89,SSE,165,5.9,12.2,71,0.00,,-RA,0.00,VWS V14.01,2013-02-10 18:31:00,
2013-02-10 13:32:00,50.4,41.5,29.89,SSE,165,0.0,7.5,71,0.00,,-RA,0.00,VWS V14.01,2013-02-10 18:32:00,
2013-02-10 13:33:00,50.4,41.5,29.89,SSE,165,4.4,7.5,71,0.00,,-RA,0.00,VWS V14.01,2013-02-10 18:33:00,
2013-02-10 13:34:00,50.4,41.5,29.89,South,169,5.9,10.3,71,0.00,,-RA,0.00,VWS V14.01,2013-02-10 18:34:00,
2013-02-10 13:35:00,50.4,41.5,29.89,South,171,4.4,7.5,71,0.00,,-RA,0.00,VWS V14.01,2013-02-10 18:35:00,
2013-02-10 13:36:00,50.4,41.5,29.89,SSE,158,5.9,7.5,71,0.00,,-RA,0.00,VWS V14.01,2013-02-10 18:36:00,
2013-02-10 13:37:00,50.5,41.7,29.89,South,172,8.9,12.2,71,0.00,,-RA,0.00,VWS V14.01,2013-02-10 18:37:00,
2013-02-10 13:38:00,50.5,41.7,29.89,East,99,4.4,11.3,71,0.00,,-RA,0.00,VWS V14.01,2013-02-10 18:38:00,
2013-02-10 13:39:00,50.5,41.7,29.89,SSW,192,5.2,7.5,71,0.00,,-RA,0.00,VWS V14.01,2013-02-10 18:39:00,
2013-02-10 13:40:00,50.5,41.7,29.89,SSE,159,5.2,10.3,71,0.00,,-RA,0.00,VWS V14.01,2013-02-10 18:40:00,
2013-02-10 13:41:00,50.5,41.7,29.89,SW,228,6.6,10.3,71,0.00,,-RA,0.00,VWS V14.01,2013-02-10 18:41:00,
2013-02-10 13:42:00,50.5,41.7,29.89,SSW,205,6.6,10.3,71,0.00,,-RA,0.00,VWS V14.01,2013-02-10 18:42:00,
2013-02-10 13:43:00,50.5,41.7,29.89,South,191,5.9,13.2,71,0.00,,-RA,0.00,VWS V14.01,2013-02-10 18:43:00,
2013-02-10 13:44:00,50.7,41.8,29.89,South,178,5.2,16.9,71,0.00,,-RA,0.00,VWS V14.01,2013-02-10 18:44:00,
2013-02-10 13:45:00,50.7,41.8,29.89,South,183,5.9,16.0,71,0.00,,-RA,0.00,VWS V14.01,2013-02-10 18:45:00,
2013-02-10 13:46:00,50.7,41.8,29.89,South,180,0.0,7.5,71,0.00,,-RA,0.00,VWS V14.01,2013-02-10 18:46:00,
2013-02-10 13:47:00,50.7,41.8,29.89,South,183,0.0,0.0,71,0.00,,-RA,0.00,VWS V14.01,2013-02-10 18:47:00,
2013-02-10 13:48:00,50.7,41.8,29.89,SSE,163,9.6,14.1,71,0.00,,-RA,0.00,VWS V14.01,2013-02-10 18:48:00,
2013-02-10 13:49:00,50.7,41.8,29.89,South,178,6.6,12.2,71,0.00,,-RA,0.00,VWS V14.01,2013-02-10 18:49:00,
2013-02-10 13:50:00,50.7,41.8,29.89,SSE,168,6.6,12.2,71,0.00,,-RA,0.00,VWS V14.01,2013-02-10 18:50:00,
2013-02-10 13:51:00,50.7,41.8,29.89,South,171,5.2,8.5,71,0.00,,-RA,0.00,VWS V14.01,2013-02-10 18:51:00,
2013-02-10 13:52:00,50.7,42.4,29.89,South,182,5.2,8.5,73,0.00,,-RA,0.00,VWS V14.01,2013-02-10 18:52:00,
2013-02-10 13:53:00,50.7,42.4,29.89,South,191,4.4,13.2,73,0.00,,-RA,0.00,VWS V14.01,2013-02-10 18:53:00,
2013-02-10 13:54:00,50.7,42.4,29.89,SSW,213,5.2,7.5,73,0.00,,-RA,0.00,VWS V14.01,2013-02-10 18:54:00,
2013-02-10 13:55:00,50.7,43.0,29.89,South,173,5.2,10.3,75,0.00,,-RA,0.00,VWS V14.01,2013-02-10 18:55:00,
2013-02-10 13:56:00,50.7,43.0,29.89,SSW,192,5.9,9.4,75,0.00,,-RA,0.00,VWS V14.01,2013-02-10 18:56:00,
2013-02-10 13:57:00,50.7,44.2,29.89,South,177,4.4,10.3,78,0.00,,-RA,0.00,VWS V14.01,2013-02-10 18:57:00,
2013-02-10 13:58:00,50.7,43.6,29.89,SSE,166,5.9,8.5,76,0.00,,-RA,0.00,VWS V14.01,2013-02-10 18:58:00,
2013-02-10 13:59:00,50.7,43.6,29.89,South,172,9.6,16.9,76,0.00,,-RA,0.00,VWS V14.01,2013-02-10 18:59:00,
2013-02-10 14:00:00,50.5,44.0,29.89,South,186,5.2,12.2,78,0.04,,-RA,0.04,VWS V14.01,2013-02-10 19:00:00,
2013-02-10 14:01:00,50.5,44.0,29.89,SSW,202,3.7,11.3,78,0.04,,-RA,0.04,VWS V14.01,2013-02-10 19:01:00,
2013-02-10 14:02:00,50.5,44.0,29.89,SW,220,8.9,11.3,78,0.04,,-RA,0.04,VWS V14.01,2013-02-10 19:02:00,
2013-02-10 14:03:00,50.5,44.0,29.89,South,191,9.6,12.2,78,0.04,,-RA,0.04,VWS V14.01,2013-02-10 19:03:00,
2013-02-10 14:04:00,50.4,44.4,29.89,South,186,13.3,16.9,80,0.04,,-RA,0.04,VWS V14.01,2013-02-10 19:04:00,
2013-02-10 14:05:00,50.4,45.0,29.89,South,188,5.2,16.9,82,0.04,,-RA,0.04,VWS V14.01,2013-02-10 19:05:00,
2013-02-10 14:06:00,50.2,45.3,29.89,SW,226,9.6,16.0,83,0.04,,-RA,0.04,VWS V14.01,2013-02-10 19:06:00,
2013-02-10 14:07:00,50.2,45.8,29.89,South,172,10.3,16.9,85,0.04,,-RA,0.04,VWS V14.01,2013-02-10 19:07:00,
2013-02-10 14:08:00,50.2,45.8,29.89,South,186,5.9,13.2,85,0.04,,-RA,0.04,VWS V14.01,2013-02-10 19:08:00,
2013-02-10 14:09:00,50.0,45.7,29.89,South,173,9.6,12.2,85,0.04,,-RA,0.04,VWS V14.01,2013-02-10 19:09:00,
2013-02-10 14:10:00,50.0,46.2,29.89,South,188,12.5,16.0,87,0.04,,-RA,0.04,VWS V14.01,2013-02-10 19:10:00,
2013-02-10 14:11:00,49.8,46.0,29.89,South,178,8.9,18.3,87,0.04,,-RA,0.04,VWS V14.01,2013-02-10 19:11:00,
2013-02-10 14:12:00,49.8,46.0,29.89,WSW,239,6.6,13.2,87,0.04,,-RA,0.04,VWS V14.01,2013-02-10 19:12:00,
2013-02-10 14:13:00,49.6,46.9,29.89,South,178,8.1,12.2,90,0.04,,-RA,0.04,VWS V14.01,2013-02-10 19:13:00,
2013-02-10 14:14:00,49.5,46.7,29.89,SSE,165,6.6,10.3,90,0.08,,-RA,0.08,VWS V14.01,2013-02-10 19:14:00,
2013-02-10 14:15:00,49.5,46.7,29.89,SSE,165,8.9,17.4,90,0.08,,-RA,0.08,VWS V14.01,2013-02-10 19:15:00,
2013-02-10 14:16:00,49.5,46.7,29.89,South,186,8.9,16.0,90,0.08,,-RA,0.08,VWS V14.01,2013-02-10 19:16:00,
2013-02-10 14:17:00,49.3,46.5,29.89,South,169,8.9,11.3,90,0.08,,-RA,0.08,VWS V14.01,2013-02-10 19:17:00,
2013-02-10 14:18:00,49.3,46.5,29.89,SSE,148,9.6,15.0,90,0.08,,-RA,0.08,VWS V14.01,2013-02-10 19:18:00,
2013-02-10 14:19:00,49.1,46.3,29.89,South,190,8.1,13.2,90,0.08,,-RA,0.08,VWS V14.01,2013-02-10 19:19:00,
2013-02-10 14:20:00,49.1,46.3,29.89,SSE,166,9.6,17.4,90,0.08,,-RA,0.08,VWS V14.01,2013-02-10 19:20:00,
2013-02-10 14:21:00,48.9,46.2,29.89,SSE,161,9.6,21.1,90,0.08,,-RA,0.08,VWS V14.01,2013-02-10 19:21:00,
2013-02-10 14:22:00,48.9,46.2,29.89,South,188,6.6,12.2,90,0.12,,-RA,0.12,VWS V14.01,2013-02-10 19:22:00,
2013-02-10 14:23:00,48.9,46.7,29.89,South,181,10.3,16.0,92,0.12,,-RA,0.12,VWS V14.01,2013-02-10 19:23:00,
2013-02-10 14:24:00,48.7,46.5,29.89,South,175,5.9,13.2,92,0.12,,-RA,0.12,VWS V14.01,2013-02-10 19:24:00,
2013-02-10 14:25:00,48.7,46.5,29.89,South,172,6.6,14.1,92,0.12,,-RA,0.12,VWS V14.01,2013-02-10 19:25:00,
2013-02-10 14:26:00,48.7,47.0,29.89,South,184,4.4,10.3,94,0.12,,-RA,0.12,VWS V14.01,2013-02-10 19:26:00,
2013-02-10 14:27:00,48.7,47.0,29.89,SSE,156,8.1,13.2,94,0.12,,-RA,0.12,VWS V14.01,2013-02-10 19:27:00,
2013-02-10 14:28:00,48.6,46.8,29.89,South,175,10.3,13.2,94,0.12,,-RA,0.12,VWS V14.01,2013-02-10 19:28:00,
2013-02-10 14:29:00,48.6,47.2,29.89,SE,139,8.9,17.4,95,0.16,,-RA,0.16,VWS V14.01,2013-02-10 19:29:00,
2013-02-10 14:30:00,48.4,47.1,29.89,SE,126,6.6,12.2,95,0.16,,-RA,0.16,VWS V14.01,2013-02-10 19:30:00,
2013-02-10 14:31:00,48.4,47.1,29.89,South,183,5.9,17.4,95,0.16,,-RA,0.16,VWS V14.01,2013-02-10 19:31:00,
2013-02-10 14:32:00,48.4,47.5,29.89,SSE,161,8.1,18.3,97,0.16,,-RA,0.16,VWS V14.01,2013-02-10 19:32:00,
2013-02-10 14:33:00,48.2,47.4,29.89,SSE,159,6.6,10.3,97,0.16,,-RA,0.16,VWS V14.01,2013-02-10 19:33:00,
2013-02-10 14:34:00,48.2,47.4,29.89,SE,124,8.9,13.2,97,0.16,,-RA,0.16,VWS V14.01,2013-02-10 19:34:00,
2013-02-10 14:35:00,48.0,47.2,29.89,ESE,113,6.6,22.1,97,0.16,,-RA,0.16,VWS V14.01,2013-02-10 19:35:00,
2013-02-10 14:36:00,48.0,47.7,29.89,SSE,167,5.9,15.0,99,0.16,,-RA,0.16,VWS V14.01,2013-02-10 19:36:00,
2013-02-10 14:37:00,48.0,47.7,29.89,SSE,153,5.9,16.9,99,0.16,,-RA,0.16,VWS V14.01,2013-02-10 19:37:00,
2013-02-10 14:38:00,48.0,48.0,29.89,SE,136,6.6,10.3,100,0.16,,-RA,0.16,VWS V14.01,2013-02-10 19:38:00,
2013-02-10 14:39:00,47.8,47.8,29.89,South,181,8.9,11.3,100,0.16,,-RA,0.16,VWS V14.01,2013-02-10 19:39:00,
2013-02-10 14:40:00,47.8,47.8,29.89,SE,138,8.1,11.3,100,0.16,,-RA,0.16,VWS V14.01,2013-02-10 19:40:00,
2013-02-10 14:41:00,47.8,47.8,29.89,SE,145,9.6,12.2,100,0.16,,-RA,0.16,VWS V14.01,2013-02-10 19:41:00,
2013-02-10 14:42:00,47.7,47.7,29.83,SE,138,6.6,16.9,100,0.16,,-RA,0.16,VWS V14.01,2013-02-10 19:42:00,
2013-02-10 14:43:00,47.7,47.7,29.83,South,177,5.2,10.3,100,0.16,,-RA,0.16,VWS V14.01,2013-02-10 19:43:00,
2013-02-10 14:44:00,47.7,47.7,29.83,SE,136,5.2,6.6,100,0.16,,-RA,0.16,VWS V14.01,2013-02-10 19:44:00,
2013-02-10 14:45:00,47.7,47.7,29.83,South,184,6.6,10.3,100,0.16,,-RA,0.16,VWS V14.01,2013-02-10 19:45:00,
2013-02-10 14:46:00,47.7,47.7,29.83,SSE,148,8.9,11.3,100,0.20,,-RA,0.20,VWS V14.01,2013-02-10 19:46:00,
2013-02-10 14:47:00,47.5,47.5,29.83,South,189,14.4,18.3,100,0.20,,-RA,0.20,VWS V14.01,2013-02-10 19:47:00,
2013-02-10 14:48:00,47.5,47.5,29.83,SSE,158,8.9,18.3,100,0.20,,-RA,0.20,VWS V14.01,2013-02-10 19:48:00,
2013-02-10 14:49:00,47.5,47.5,29.83,SE,145,6.6,12.2,100,0.20,,-RA,0.20,VWS V14.01,2013-02-10 19:49:00,
2013-02-10 14:50:00,47.5,47.5,29.83,SSE,153,5.9,16.9,100,0.20,,-RA,0.20,VWS V14.01,2013-02-10 19:50:00,
2013-02-10 14:51:00,47.5,47.5,29.83,SSW,193,5.9,11.3,100,0.20,,-RA,0.20,VWS V14.01,2013-02-10 19:51:00,
2013-02-10 14:52:00,47.5,47.5,29.83,SE,140,5.9,14.1,100,0.20,,-RA,0.20,VWS V14.01,2013-02-10 19:52:00,
2013-02-10 14:53:00,47.5,47.5,29.83,SSE,153,6.6,11.3,100,0.20,,-RA,0.20,VWS V14.01,2013-02-10 19:53:00,
2013-02-10 14:54:00,47.5,47.5,29.83,South,176,12.5,16.0,100,0.20,,-RA,0.20,VWS V14.01,2013-02-10 19:54:00,
2013-02-10 14:55:00,47.5,47.5,29.83,SSW,200,5.9,16.0,100,0.20,,-RA,0.20,VWS V14.01,2013-02-10 19:55:00,
2013-02-10 14:56:00,47.5,47.5,29.83,South,174,5.9,18.3,100,0.20,,-RA,0.20,VWS V14.01,2013-02-10 19:56:00,
2013-02-10 14:57:00,47.5,47.5,29.83,SSE,165,5.2,7.5,100,0.20,,-RA,0.20,VWS V14.01,2013-02-10 19:57:00,
2013-02-10 14:58:00,47.5,47.5,29.83,South,184,8.9,11.3,100,0.20,,-RA,0.20,VWS V14.01,2013-02-10 19:58:00,
2013-02-10 14:59:00,47.5,47.5,29.83,ESE,110,8.1,11.3,100,0.20,,-RA,0.20,VWS V14.01,2013-02-10 19:59:00,
2013-02-10 15:00:00,47.5,47.5,29.83,South,176,10.3,16.9,100,0.20,,-RA,0.20,VWS V14.01,2013-02-10 20:00:00,
2013-02-10 15:01:00,47.5,47.5,29.83,ESE,123,10.3,13.2,100,0.16,,-RA,0.20,VWS V14.01,2013-02-10 20:01:00,
2013-02-10 15:02:00,47.5,47.5,29.83,SE,131,5.9,13.2,100,0.16,,-RA,0.20,VWS V14.01,2013-02-10 20:02:00,
2013-02-10 15:03:00,47.5,47.5,29.83,South,190,9.6,20.2,100,0.16,,-RA,0.20,VWS V14.01,2013-02-10 20:03:00,
2013-02-10 15:04:00,47.5,47.5,29.83,SSE,163,10.3,13.2,100,0.16,,-RA,0.20,VWS V14.01,2013-02-10 20:04:00,
2013-02-10 15:05:00,47.5,47.5,29.83,SE,141,18.1,23.0,100,0.16,,-RA,0.20,VWS V14.01,2013-02-10 20:05:00,
2013-02-10 15:06:00,47.5,47.5,29.83,SSE,158,8.9,23.0,100,0.16,,-RA,0.20,VWS V14.01,2013-02-10 20:06:00,
2013-02-10 15:07:00,47.5,47.5,29.83,South,176,16.6,21.1,100,0.16,,-RA,0.20,VWS V14.01,2013-02-10 20:07:00,
2013-02-10 15:08:00,47.5,47.5,29.83,SSW,194,9.6,21.1,100,0.16,,-RA,0.20,VWS V14.01,2013-02-10 20:08:00,
2013-02-10 15:09:00,47.5,47.5,29.83,SE,143,8.9,18.3,100,0.16,,-RA,0.20,VWS V14.01,2013-02-10 20:09:00,
2013-02-10 15:10:00,47.5,47.5,29.83,South,180,17.3,25.8,100,0.16,,-RA,0.20,VWS V14.01,2013-02-10 20:10:00,
2013-02-10 15:11:00,47.5,47.5,29.83,South,183,10.3,27.7,100,0.16,,-RA,0.20,VWS V14.01,2013-02-10 20:11:00,
2013-02-10 15:12:00,47.7,47.7,29.83,South,181,9.6,18.3,100,0.16,,-RA,0.20,VWS V14.01,2013-02-10 20:12:00,
2013-02-10 15:13:00,47.7,47.7,29.83,South,184,9.6,22.1,100,0.16,,-RA,0.20,VWS V14.01,2013-02-10 20:13:00,
2013-02-10 15:14:00,47.7,47.7,29.83,SE,139,12.5,27.7,100,0.16,,-RA,0.20,VWS V14.01,2013-02-10 20:14:00,
2013-02-10 15:15:00,47.7,47.7,29.83,SSE,165,12.5,23.0,100,0.12,,-RA,0.20,VWS V14.01,2013-02-10 20:15:00,
2013-02-10 15:16:00,47.7,47.7,29.83,SSW,192,10.3,16.9,100,0.12,,-RA,0.20,VWS V14.01,2013-02-10 20:16:00,
2013-02-10 15:17:00,47.7,47.7,29.83,SSE,149,3.7,13.2,100,0.12,,-RA,0.20,VWS V14.01,2013-02-10 20:17:00,
2013-02-10 15:18:00,47.7,47.7,29.83,South,184,6.6,8.5,100,0.12,,-RA,0.20,VWS V14.01,2013-02-10 20:18:00,
2013-02-10 15:19:00,47.7,47.7,29.83,SSE,152,6.6,8.5,100,0.12,,-RA,0.20,VWS V14.01,2013-02-10 20:19:00,
2013-02-10 15:20:00,47.7,47.7,29.83,South,169,5.2,8.5,100,0.12,,-RA,0.20,VWS V14.01,2013-02-10 20:20:00,
2013-02-10 15:21:00,47.8,47.8,29.83,SE,126,5.2,17.4,100,0.12,,-RA,0.20,VWS V14.01,2013-02-10 20:21:00,
2013-02-10 15:22:00,47.8,47.8,29.83,SSE,168,10.3,13.2,100,0.12,,-RA,0.20,VWS V14.01,2013-02-10 20:22:00,
2013-02-10 15:23:00,47.8,47.8,29.83,South,178,5.9,13.2,100,0.08,,-RA,0.20,VWS V14.01,2013-02-10 20:23:00,
2013-02-10 15:24:00,47.8,47.8,29.83,SSE,157,9.6,12.2,100,0.08,,-RA,0.20,VWS V14.01,2013-02-10 20:24:00,
2013-02-10 15:25:00,47.8,47.8,29.83,South,189,8.1,16.0,100,0.08,,-RA,0.20,VWS V14.01,2013-02-10 20:25:00,
2013-02-10 15:26:00,47.8,47.8,29.83,SSE,148,8.1,16.0,100,0.08,,-RA,0.20,VWS V14.01,2013-02-10 20:26:00,
2013-02-10 15:27:00,48.0,48.0,29.80,SE,142,15.9,20.2,100,0.08,,-RA,0.20,VWS V14.01,2013-02-10 20:27:00,
2013-02-10 15:28:00,48.0,48.0,29.80,SE,140,6.6,20.2,100,0.08,,-RA,0.20,VWS V14.01,2013-02-10 20:28:00,
2013-02-10 15:29:00,48.0,48.0,29.80,SSE,161,8.9,27.7,100,0.08,,-RA,0.20,VWS V14.01,2013-02-10 20:29:00,
2013-02-10 15:30:00,48.0,48.0,29.80,SSE,154,5.9,21.1,100,0.04,,-RA,0.20,VWS V14.01,2013-02-10 20:30:00,
2013-02-10 15:31:00,48.0,48.0,29.80,SSE,154,5.9,7.5,100,0.04,,-RA,0.20,VWS V14.01,2013-02-10 20:31:00,
2013-02-10 15:32:00,48.0,48.0,29.80,South,169,5.9,13.2,100,0.04,,-RA,0.20,VWS V14.01,2013-02-10 20:32:00,
2013-02-10 15:33:00,48.2,48.2,29.80,South,186,13.7,17.4,100,0.04,,-RA,0.20,VWS V14.01,2013-02-10 20:33:00,
2013-02-10 15:34:00,48.2,48.2,29.80,SSE,154,17.3,22.1,100,0.04,,-RA,0.20,VWS V14.01,2013-02-10 20:34:00,
2013-02-10 15:35:00,48.2,48.2,29.80,South,177,15.9,23.0,100,0.04,,-RA,0.20,VWS V14.01,2013-02-10 20:35:00,
2013-02-10 15:36:00,48.2,48.2,29.80,SSE,164,13.3,20.2,100,0.04,,-RA,0.20,VWS V14.01,2013-02-10 20:36:00,
2013-02-10 15:37:00,48.4,48.4,29.80,South,183,8.9,17.4,100,0.04,,-RA,0.20,VWS V14.01,2013-02-10 20:37:00,
2013-02-10 15:38:00,48.4,48.4,29.80,SSE,159,12.5,18.3,100,0.04,,-RA,0.20,VWS V14.01,2013-02-10 20:38:00,
2013-02-10 15:39:00,48.4,48.4,29.80,South,178,13.3,16.9,100,0.04,,-RA,0.20,VWS V14.01,2013-02-10 20:39:00,
2013-02-10 15:40:00,48.4,48.4,29.80,SSE,167,13.7,21.1,100,0.04,,-RA,0.20,VWS V14.01,2013-02-10 20:40:00,
2013-02-10 15:41:00,48.6,48.6,29.80,SSE,150,14.4,25.8,100,0.04,,-RA,0.20,VWS V14.01,2013-02-10 20:41:00,
2013-02-10 15:42:00,48.6,48.6,29.77,SSW,212,16.6,23.0,100,0.04,,-RA,0.20,VWS V14.01,2013-02-10 20:42:00,
2013-02-10 15:43:00,48.6,48.6,29.77,South,186,6.6,21.1,100,0.04,,-RA,0.20,VWS V14.01,2013-02-10 20:43:00,
2013-02-10 15:44:00,48.7,48.7,29.77,South,175,5.2,27.7,100,0.04,,-RA,0.20,VWS V14.01,2013-02-10 20:44:00,
2013-02-10 15:49:00,48.9,48.9,29.77,SSE,157,9.6,21.1,100,0.00,,OVC060,0.20,VWS V14.01,2013-02-10 20:49:00,
2013-02-10 16:06:00,49.5,49.5,29.80,SSE,161,12.5,16.0,100,0.00,,-RA,0.20,VWS V14.01,2013-02-10 21:06:00,
2013-02-10 16:07:00,49.5,49.5,29.80,SSE,168,12.5,16.0,100,0.00,,-RA,0.20,VWS V14.01,2013-02-10 21:07:00,
2013-02-10 16:11:00,49.5,49.5,29.80,South,186,9.6,16.0,100,0.00,,-RA,0.20,VWS V14.01,2013-02-10 21:11:00,
2013-02-10 16:16:00,49.5,49.5,29.80,South,187,8.9,13.2,100,0.00,,-RA,0.20,VWS V14.01,2013-02-10 21:16:00,
2013-02-10 16:22:00,49.6,49.6,29.80,SSW,209,8.9,11.3,100,0.00,,-RA,0.20,VWS V14.01,2013-02-10 21:22:00,
2013-02-10 16:27:00,49.8,49.8,29.77,SSE,159,5.9,13.2,100,0.00,,-RA,0.20,VWS V14.01,2013-02-10 21:27:00,
2013-02-10 16:32:00,50.0,50.0,29.77,SE,134,14.4,18.3,100,0.00,,-RA,0.20,VWS V14.01,2013-02-10 21:32:00,
2013-02-10 16:37:00,50.0,50.0,29.77,SE,140,6.6,12.2,100,0.00,,-RA,0.20,VWS V14.01,2013-02-10 21:37:00,
2013-02-10 16:42:00,50.2,50.2,29.77,South,169,11.8,15.0,100,0.00,,OVC065,0.20,VWS V14.01,2013-02-10 21:42:00,
2013-02-10 16:47:00,50.4,50.4,29.77,SE,137,13.7,17.4,100,0.00,,OVC065,0.20,VWS V14.01,2013-02-10 21:47:00,
2013-02-10 16:52:00,50.4,50.4,29.77,South,179,10.3,16.0,100,0.00,,OVC065,0.20,VWS V14.01,2013-02-10 21:52:00,
2013-02-10 16:57:00,50.4,50.4,29.77,South,170,20.3,25.8,100,0.00,,OVC065,0.20,VWS V14.01,2013-02-10 21:57:00,
2013-02-10 17:02:00,50.4,50.4,29.77,SSE,152,10.3,13.2,100,0.00,,OVC065,0.20,VWS V14.01,2013-02-10 22:02:00,
2013-02-10 17:07:00,50.4,50.4,29.77,SE,140,13.3,18.3,100,0.00,,OVC065,0.20,VWS V14.01,2013-02-10 22:07:00,
2013-02-10 17:12:00,50.4,50.4,29.77,SSE,158,4.4,16.9,100,0.00,,OVC065,0.20,VWS V14.01,2013-02-10 22:12:00,
2013-02-10 17:18:00,50.4,50.4,29.77,South,176,5.2,13.2,100,0.00,,OVC065,0.20,VWS V14.01,2013-02-10 22:18:00,
2013-02-10 17:23:00,50.5,50.5,29.77,South,186,13.7,17.4,100,0.00,,OVC065,0.20,VWS V14.01,2013-02-10 22:23:00,
2013-02-10 17:28:00,50.5,50.5,29.77,SSE,156,13.7,21.1,100,0.00,,OVC065,0.20,VWS V14.01,2013-02-10 22:28:00,
2013-02-10 17:33:00,50.5,50.5,29.77,SSE,155,14.4,18.3,100,0.00,,OVC065,0.20,VWS V14.01,2013-02-10 22:33:00,
2013-02-10 17:38:00,50.5,50.5,29.77,South,183,17.3,22.1,100,0.00,,OVC065,0.20,VWS V14.01,2013-02-10 22:38:00,
2013-02-10 17:43:00,50.5,50.5,29.77,SSW,192,13.7,21.1,100,0.00,,OVC070,0.20,VWS V14.01,2013-02-10 22:43:00,
2013-02-10 17:48:00,50.7,50.7,29.77,South,175,9.6,17.4,100,0.00,,OVC070,0.20,VWS V14.01,2013-02-10 22:48:00,
2013-02-10 17:53:00,50.7,50.7,29.77,SSE,152,13.3,18.3,100,0.00,,OVC070,0.20,VWS V14.01,2013-02-10 22:53:00,
2013-02-10 17:58:00,50.7,50.7,29.77,SE,140,16.6,21.1,100,0.00,,OVC070,0.20,VWS V14.01,2013-02-10 22:58:00,
2013-02-10 18:04:00,50.7,50.7,29.77,ESE,114,18.1,23.0,100,0.00,,OVC070,0.20,VWS V14.01,2013-02-10 23:04:00,
2013-02-10 18:09:00,50.7,50.7,29.77,SSE,164,9.6,13.2,100,0.00,,OVC070,0.20,VWS V14.01,2013-02-10 23:09:00,
2013-02-10 18:14:00,50.7,50.7,29.77,SE,140,11.1,14.1,100,0.00,,OVC070,0.20,VWS V14.01,2013-02-10 23:14:00,
2013-02-10 18:19:00,50.7,50.7,29.77,SE,137,9.6,13.2,100,0.00,,OVC070,0.20,VWS V14.01,2013-02-10 23:19:00,
2013-02-10 18:24:00,50.7,50.7,29.77,SSW,206,13.7,17.4,100,0.00,,OVC070,0.20,VWS V14.01,2013-02-10 23:24:00,
2013-02-10 18:29:00,50.7,50.7,29.74,South,186,14.4,30.5,100,0.00,,OVC070,0.20,VWS V14.01,2013-02-10 23:29:00,
2013-02-10 18:34:00,50.7,50.7,29.74,South,175,6.6,11.3,100,0.00,,OVC070,0.20,VWS V14.01,2013-02-10 23:34:00,
2013-02-10 18:39:00,50.7,50.7,29.74,East,90,13.3,23.0,100,0.00,,OVC070,0.20,VWS V14.01,2013-02-10 23:39:00,
2013-02-10 18:44:00,50.7,50.7,29.77,South,187,15.9,20.2,100,0.00,,OVC075,0.20,VWS V14.01,2013-02-10 23:44:00,
2013-02-10 18:49:00,50.7,50.7,29.77,SE,146,5.9,23.0,100,0.00,,OVC075,0.20,VWS V14.01,2013-02-10 23:49:00,
2013-02-10 18:54:00,50.7,50.7,29.77,SSE,168,6.6,22.1,100,0.00,,OVC075,0.20,VWS V14.01,2013-02-10 23:54:00,
2013-02-10 18:59:00,50.7,50.7,29.74,South,182,14.4,18.3,100,0.00,,OVC075,0.20,VWS V14.01,2013-02-10 23:59:00,
2013-02-10 19:04:00,50.7,50.7,29.74,SSW,213,13.7,22.1,100,0.00,,OVC075,0.20,VWS V14.01,2013-02-11 00:04:00,
2013-02-10 19:09:00,50.7,50.7,29.74,SSE,159,12.5,21.1,100,0.00,,OVC018,0.20,VWS V14.01,2013-02-11 00:09:00,
2013-02-10 19:15:00,50.7,50.7,29.74,South,186,13.3,31.5,100,0.00,,OVC018,0.20,VWS V14.01,2013-02-11 00:15:00,
2013-02-10 19:20:00,50.7,50.7,29.74,South,188,13.3,16.9,100,0.00,,OVC018,0.20,VWS V14.01,2013-02-11 00:20:00,
2013-02-10 19:25:00,50.9,50.9,29.77,SSE,168,16.6,21.1,100,0.00,,OVC018,0.20,VWS V14.01,2013-02-11 00:25:00,
2013-02-10 19:30:00,50.9,50.9,29.77,South,180,10.3,13.2,100,0.00,,OVC018,0.20,VWS V14.01,2013-02-11 00:30:00,
2013-02-10 19:35:00,51.1,51.1,29.77,South,183,8.1,11.3,100,0.00,,OVC018,0.20,VWS V14.01,2013-02-11 00:35:00,
2013-02-10 19:40:00,51.1,51.1,29.77,South,178,17.3,22.1,100,0.00,,OVC018,0.20,VWS V14.01,2013-02-11 00:40:00,
2013-02-10 19:45:00,51.1,51.1,29.77,SW,225,18.1,27.7,100,0.00,,OVC018,0.20,VWS V14.01,2013-02-11 00:45:00,
2013-02-10 19:50:00,51.3,51.3,29.77,South,171,12.5,27.7,100,0.00,,OVC014,0.20,VWS V14.01,2013-02-11 00:50:00,
2013-02-10 19:55:00,51.3,51.3,29.77,South,171,18.1,23.0,100,0.00,,OVC014,0.20,VWS V14.01,2013-02-11 00:55:00,
2013-02-10 20:00:00,51.4,51.4,29.77,South,173,9.6,16.9,100,0.00,,OVC014,0.20,VWS V14.01,2013-02-11 01:00:00,
2013-02-10 20:05:00,51.4,51.4,29.77,SSE,152,24.7,31.5,100,0.00,,OVC014,0.20,VWS V14.01,2013-02-11 01:05:00,
2013-02-10 20:10:00,51.4,51.4,29.74,WSW,241,16.6,23.0,100,0.00,,OVC014,0.20,VWS V14.01,2013-02-11 01:10:00,
2013-02-10 20:15:00,51.4,51.4,29.74,South,170,17.3,22.1,100,0.00,,OVC014,0.20,VWS V14.01,2013-02-11 01:15:00,
2013-02-10 20:21:00,51.4,51.4,29.74,South,174,6.6,17.4,100,0.00,,OVC014,0.20,VWS V14.01,2013-02-11 01:21:00,
2013-02-10 20:26:00,51.4,51.4,29.77,South,170,28.8,36.6,100,0.00,,OVC014,0.20,VWS V14.01,2013-02-11 01:26:00,
2013-02-10 20:31:00,51.4,51.4,29.77,SSE,152,18.1,25.8,100,0.00,,OVC014,0.20,VWS V14.01,2013-02-11 01:31:00,
2013-02-10 20:36:00,51.4,51.4,29.77,SSE,152,12.5,17.4,100,0.00,,OVC014,0.20,VWS V14.01,2013-02-11 01:36:00,
2013-02-10 20:41:00,51.4,51.4,29.77,South,171,14.4,18.3,100,0.00,,OVC014,0.20,VWS V14.01,2013-02-11 01:41:00,
2013-02-10 20:46:00,51.4,51.4,29.77,SSE,153,13.7,28.7,100,0.00,,OVC014,0.20,VWS V14.01,2013-02-11 01:46:00,
2013-02-10 20:51:00,51.4,51.4,29.77,South,174,14.4,18.3,100,0.00,,OVC014,0.20,VWS V14.01,2013-02-11 01:51:00,
2013-02-10 20:56:00,51.4,51.4,29.77,South,173,12.5,30.5,100,0.00,,OVC014,0.20,VWS V14.01,2013-02-11 01:56:00,
2013-02-10 21:01:00,51.3,51.3,29.77,South,179,18.1,23.0,100,0.00,,OVC014,0.20,VWS V14.01,2013-02-11 02:01:00,
2013-02-10 21:06:00,51.3,51.3,29.77,South,183,8.1,13.2,100,0.00,,OVC014,0.20,VWS V14.01,2013-02-11 02:06:00,
2013-02-10 21:11:00,51.3,51.3,29.77,SSW,200,8.9,16.9,100,0.00,,OVC014,0.20,VWS V14.01,2013-02-11 02:11:00,
2013-02-10 21:16:00,51.3,51.3,29.77,South,170,17.3,22.1,100,0.00,,OVC014,0.20,VWS V14.01,2013-02-11 02:16:00,
2013-02-10 21:21:00,51.3,51.3,29.77,SE,140,10.3,13.2,100,0.00,,OVC014,0.20,VWS V14.01,2013-02-11 02:21:00,
2013-02-10 21:26:00,51.3,51.3,29.77,SSW,199,4.4,13.2,100,0.00,,OVC014,0.20,VWS V14.01,2013-02-11 02:26:00,
2013-02-10 21:31:00,51.3,51.3,29.77,South,176,8.9,17.4,100,0.00,,OVC014,0.20,VWS V14.01,2013-02-11 02:31:00,
2013-02-10 21:36:00,51.3,51.3,29.77,SSW,197,9.6,12.2,100,0.00,,OVC014,0.20,VWS V14.01,2013-02-11 02:36:00,
2013-02-10 21:41:00,51.4,51.4,29.77,SSW,205,10.3,13.2,100,0.00,,OVC014,0.20,VWS V14.01,2013-02-11 02:41:00,
2013-02-10 21:47:00,51.4,51.4,29.77,WSW,240,12.5,16.0,100,0.00,,OVC014,0.20,VWS V14.01,2013-02-11 02:47:00,
2013-02-10 21:52:00,51.4,51.4,29.77,South,178,10.3,16.9,100,0.00,,OVC014,0.20,VWS V14.01,2013-02-11 02:52:00,
2013-02-10 21:57:00,51.4,51.4,29.74,SW,232,10.3,13.2,100,0.00,,OVC014,0.20,VWS V14.01,2013-02-11 02:57:00,
2013-02-10 22:02:00,51.4,51.4,29.74,South,188,13.3,16.9,100,0.00,,OVC014,0.20,VWS V14.01,2013-02-11 03:02:00,
2013-02-10 22:07:00,51.3,51.3,29.74,South,182,5.9,7.5,100,0.00,,OVC014,0.20,VWS V14.01,2013-02-11 03:07:00,
2013-02-10 22:12:00,51.3,51.3,29.74,SSE,164,3.7,13.2,100,0.00,,OVC014,0.20,VWS V14.01,2013-02-11 03:12:00,
2013-02-10 22:17:00,51.3,51.3,29.74,SSE,147,0.0,8.5,100,0.00,,OVC014,0.20,VWS V14.01,2013-02-11 03:17:00,
2013-02-10 22:22:00,51.3,51.3,29.74,SSW,208,8.1,11.3,100,0.00,,OVC014,0.20,VWS V14.01,2013-02-11 03:22:00,
2013-02-10 22:27:00,51.3,51.3,29.77,South,181,5.9,11.3,100,0.00,,OVC014,0.20,VWS V14.01,2013-02-11 03:27:00,
2013-02-10 22:32:00,51.3,51.3,29.77,SW,219,5.9,8.5,100,0.00,,OVC014,0.20,VWS V14.01,2013-02-11 03:32:00,
2013-02-10 22:37:00,51.4,51.4,29.77,WSW,253,5.9,12.2,100,0.00,,OVC014,0.20,VWS V14.01,2013-02-11 03:37:00,
2013-02-10 22:42:00,51.6,51.6,29.77,South,177,5.2,6.6,100,0.00,,OVC029,0.20,VWS V14.01,2013-02-11 03:42:00,
2013-02-10 22:47:00,51.6,51.6,29.77,SSE,164,5.2,8.5,100,0.00,,OVC029,0.20,VWS V14.01,2013-02-11 03:47:00,
2013-02-10 22:53:00,51.6,51.6,29.77,South,179,3.7,6.6,100,0.00,,OVC029,0.20,VWS V14.01,2013-02-11 03:53:00,
2013-02-10 22:58:00,51.6,51.6,29.77,South,190,0.0,0.0,100,0.00,,OVC029,0.20,VWS V14.01,2013-02-11 03:58:00,
2013-02-10 23:03:00,51.6,51.6,29.77,South,172,5.9,7.5,100,0.00,,OVC029,0.20,VWS V14.01,2013-02-11 04:03:00,
2013-02-10 23:08:00,51.4,51.4,29.77,SSW,196,0.0,12.2,100,0.00,,OVC029,0.20,VWS V14.01,2013-02-11 04:08:00,
2013-02-10 23:14:00,51.4,51.4,29.77,South,169,8.9,12.2,100,0.00,,OVC029,0.20,VWS V14.01,2013-02-11 04:14:00,
2013-02-10 23:19:00,51.4,51.4,29.77,SSW,207,4.4,8.5,100,0.00,,OVC029,0.20,VWS V14.01,2013-02-11 04:19:00,
2013-02-10 23:24:00,51.6,51.6,29.77,WSW,239,8.1,10.3,100,0.00,,OVC029,0.20,VWS V14.01,2013-02-11 04:24:00,
2013-02-10 23:29:00,51.6,51.6,29.74,SSW,199,5.2,7.5,100,0.00,,OVC029,0.20,VWS V14.01,2013-02-11 04:29:00,
2013-02-10 23:34:00,51.6,51.6,29.74,South,189,0.0,6.6,100,0.00,,OVC029,0.20,VWS V14.01,2013-02-11 04:34:00,
2013-02-10 23:39:00,51.6,51.6,29.74,SW,217,8.9,11.3,100,0.00,,OVC029,0.20,VWS V14.01,2013-02-11 04:39:00,
2013-02-10 23:44:00,51.6,51.6,29.74,South,174,7.4,13.2,100,0.00,,OVC027,0.20,VWS V14.01,2013-02-11 04:44:00,
2013-02-10 23:49:00,51.6,51.6,29.74,South,179,16.6,21.1,100,0.00,,OVC027,0.20,VWS V14.01,2013-02-11 04:49:00,
2013-02-10 23:54:00,51.8,51.8,29.74,South,191,5.2,16.9,100,0.00,,OVC027,0.20,VWS V14.01,2013-02-11 04:54:00,
2013-02-10 23:59:00,52.0,52.0,29.74,SSW,195,8.9,12.2,100,0.00,,OVC027,0.20,VWS V14.01,2013-02-11 04:59:00,